GFSMA_sfc_temp_057.txt.gz
Temp
63 63 63 62 61 61 61 61 61 62 62 63 63 64 63 63 63 63 60 63 64 66 67 67 66 66 65 65 64 64 64 65 66 66 66 65 65 65 64 64 65 66 66
62 61 60 59 59 59 60 59 59 58 58 59 60 60 61 60 60 60 59 57 62 63 64 65 65 65 65 64 64 63 63 64 64 65 64 63 63 63 63 63 63 64 65
61 60 58 58 58 58 58 58 56 56 55 58 57 58 58 57 58 58 59 58 57 61 62 64 64 65 64 64 63 63 63 63 63 63 63 62 62 62 62 63 62 63 63
61 58 57 57 58 57 57 55 54 54 53 52 52 53 53 55 56 57 58 57 54 57 59 62 63 64 63 63 64 62 62 62 61 61 61 61 61 61 61 61 61 61 62
61 58 57 57 57 56 55 55 53 51 50 50 54 52 50 51 52 57 56 57 56 54 54 60 61 61 62 61 63 61 61 61 60 60 60 60 60 60 59 60 60 61 61
61 59 58 58 57 55 53 52 51 51 49 48 56 52 49 50 49 49 50 55 54 56 55 57 55 57 60 62 62 60 61 60 60 59 59 58 58 58 59 59 59 59 60
61 58 56 55 55 54 52 52 50 49 47 46 45 46 46 47 50 48 48 48 50 54 56 55 55 54 53 57 59 59 59 58 59 58 57 57 57 57 57 58 58 58 59
60 60 56 55 54 52 51 50 48 46 46 47 43 41 38 44 45 49 46 48 45 50 54 56 52 52 50 49 52 56 56 56 57 57 56 56 55 56 56 57 57 57 58
60 58 56 54 53 51 49 48 48 47 44 45 46 43 37 35 38 43 45 43 43 44 45 48 52 52 52 50 51 52 53 54 55 55 56 56 56 56 55 56 56 57 57
59 59 57 55 54 52 51 49 51 47 45 43 44 49 43 40 35 34 40 43 43 45 42 43 44 47 48 46 50 51 50 51 52 53 54 55 55 55 55 55 55 56 56
60 59 57 54 53 51 49 48 48 47 45 43 42 41 40 39 39 35 34 35 39 41 43 42 41 42 45 45 43 46 50 49 50 52 53 54 54 54 54 54 54 55 55
55 54 55 52 51 50 49 48 47 46 45 43 43 41 40 39 38 37 33 33 34 37 40 41 41 41 42 43 51 52 51 49 49 52 52 53 53 53 53 53 53 54 54
53 52 51 49 48 49 48 48 46 45 45 42 41 41 41 43 42 42 40 35 32 35 36 38 40 40 46 41 43 50 51 48 48 50 51 52 52 52 52 52 52 53 53
52 50 49 49 48 48 47 46 44 43 43 41 41 41 40 41 43 44 40 37 29 31 33 35 38 39 39 39 43 48 42 46 47 47 48 49 49 50 50 50 51 51 51
54 49 48 47 47 47 46 45 43 43 42 41 41 41 41 41 42 43 40 40 35 25 30 32 33 39 39 39 42 41 39 45 46 46 46 46 48 48 49 49 49 49 50
50 48 47 47 46 46 46 43 41 42 40 39 40 39 40 39 39 38 38 40 37 35 31 33 34 35 38 43 44 39 39 45 44 44 44 45 46 46 47 47 47 48 48
49 48 48 47 47 45 43 42 41 41 40 39 38 38 38 39 38 38 39 38 34 31 27 30 33 34 33 34 36 36 38 37 37 43 43 44 44 44 44 45 45 46 46
48 48 48 47 47 44 43 41 40 40 38 37 37 38 40 43 38 36 33 31 30 30 28 27 28 30 30 32 32 32 38 42 38 42 43 43 43 43 43 43 43 43 43
47 47 48 47 46 43 42 41 41 40 39 38 38 37 37 36 32 31 31 29 29 34 28 26 27 28 30 30 30 31 32 32 39 42 42 42 42 42 43 42 43 42 42
48 47 47 46 44 42 42 42 42 39 38 38 38 38 38 36 33 31 32 29 30 27 26 25 27 27 28 30 28 28 29 30 30 37 38 39 40 41 41 41 41 42 42
48 47 46 44 43 43 44 40 40 40 37 36 37 39 38 38 41 34 32 27 27 25 25 25 25 25 26 26 26 28 27 27 28 29 31 33 32 34 36 39 40 42 42
46 45 43 42 41 44 40 39 37 35 37 36 34 34 35 38 37 36 35 35 31 25 23 22 24 24 24 26 28 26 24 23 21 29 26 27 31 31 33 35 39 40 41
43 41 41 41 39 39 39 37 36 33 35 35 32 31 34 37 33 30 32 32 30 32 29 25 23 25 25 26 26 25 25 24 24 28 27 25 30 28 32 37 39 40 41
41 39 39 39 37 39 38 36 36 32 31 32 31 31 30 29 29 29 28 26 26 27 28 30 27 26 26 28 27 28 27 26 27 28 30 25 27 28 30 30 36 39 40
39 38 38 36 35 33 36 35 34 29 30 30 32 31 31 28 32 32 27 23 25 25 31 32 32 32 33 33 33 29 25 25 24 26 27 26 24 27 27 31 30 37 39
40 38 37 35 36 33 35 36 34 27 25 28 29 30 32 29 31 30 22 18 18 23 25 25 26 27 29 29 32 30 27 23 23 22 26 22 27 25 25 27 30 32 32

GFSMA_sfc_temp_060.txt.gz
Temp
61 60 59 61 59 59 59 58 58 59 58 59 59 59 59 58 58 57 55 61 64 67 68 67 66 66 65 64 64 64 64 65 65 64 63 63 63 63 63 63 63 63 64
60 58 58 57 56 57 57 56 55 54 54 55 56 56 56 55 55 55 55 53 62 64 65 66 66 65 65 64 63 63 63 63 63 63 63 62 63 62 62 62 62 62 62
59 58 56 56 56 56 55 54 54 53 52 54 53 53 53 53 54 54 55 54 55 61 63 64 65 64 64 64 63 63 63 62 62 62 62 61 61 61 61 61 61 61 62
59 57 55 55 55 54 53 52 52 51 49 49 49 49 49 51 52 52 53 54 51 54 58 62 63 63 63 63 63 63 62 61 61 60 60 60 60 60 60 60 60 60 61
58 56 55 54 55 53 52 53 49 49 47 47 51 48 48 48 48 53 51 51 52 52 52 59 59 60 62 63 63 62 61 60 60 59 59 59 59 59 59 59 59 59 59
59 56 55 54 54 52 51 50 49 48 46 46 53 50 46 46 46 46 47 51 50 50 51 52 53 55 59 60 61 61 60 60 59 59 58 57 57 57 58 58 58 59 59
57 55 54 53 52 51 50 50 48 47 45 44 43 43 43 45 45 45 45 45 47 49 50 52 52 49 51 58 59 59 59 58 59 58 57 57 56 56 56 57 57 58 58
56 55 53 52 52 50 49 48 47 44 44 44 43 39 38 40 43 47 44 45 42 45 47 50 48 49 46 47 52 58 58 58 58 58 57 57 56 56 56 56 56 57 57
57 56 55 52 51 49 48 47 46 45 43 43 43 42 37 34 36 41 43 42 41 42 42 44 46 47 46 45 47 49 54 55 57 57 56 56 56 56 56 56 56 56 56
56 56 54 52 50 49 48 46 48 45 43 42 42 46 41 39 34 32 39 42 41 43 40 40 42 44 44 43 47 49 50 51 53 54 55 55 55 55 55 55 55 55 55
55 56 53 51 49 48 47 46 46 45 43 42 40 40 38 37 36 34 33 34 38 40 41 40 39 39 42 42 41 45 51 50 51 53 54 54 54 55 55 55 55 55 55
54 53 52 49 48 47 46 45 44 44 43 41 41 39 39 37 36 34 35 34 32 36 39 39 39 39 39 40 48 49 50 49 49 51 52 53 53 54 54 54 54 55 55
52 52 51 47 46 46 46 45 43 42 42 40 40 39 39 39 39 39 38 38 35 33 35 36 38 38 43 38 40 48 49 48 48 49 50 50 51 52 52 52 53 53 54
50 49 48 46 46 45 44 43 41 40 40 39 39 39 39 39 39 39 38 37 34 29 30 33 36 38 37 37 40 46 40 45 46 46 47 48 48 49 49 50 50 51 52
51 48 46 45 45 45 43 43 39 39 39 38 37 37 37 38 38 38 39 38 32 25 26 30 31 35 35 37 39 38 37 43 45 44 45 45 46 47 48 48 49 49 49
50 47 45 45 45 43 43 42 39 39 39 37 39 37 37 38 37 36 39 39 37 33 27 30 30 32 34 39 40 36 36 43 42 43 43 44 44 45 45 46 46 47 47
47 46 46 46 45 44 43 41 40 39 38 37 37 37 38 38 37 40 38 37 33 33 27 28 30 30 29 29 33 34 35 34 35 41 42 42 43 43 43 43 44 45 45
46 46 46 46 46 44 42 41 40 40 39 37 37 36 37 42 35 33 31 30 29 29 27 25 26 26 27 28 29 28 34 38 34 39 41 41 41 41 42 41 42 42 43
45 45 46 46 45 43 41 40 40 40 38 37 37 36 36 35 32 30 30 29 28 33 27 25 25 26 26 27 28 30 30 30 35 39 39 39 39 40 41 41 41 41 41
45 47 46 45 44 41 41 41 41 38 37 37 37 36 36 35 32 31 31 28 29 26 26 24 25 26 25 28 27 26 26 28 29 34 35 36 37 38 39 39 39 40 41
46 45 44 43 42 41 42 39 39 37 35 35 35 37 37 36 39 34 31 27 27 25 24 24 24 24 25 24 24 26 26 26 27 29 28 29 29 31 32 35 37 39 40
45 43 42 40 39 42 42 40 38 34 34 34 34 34 35 37 37 37 36 34 30 25 23 21 21 21 23 25 25 23 23 22 21 26 24 26 29 28 30 32 36 37 38
42 41 40 39 38 38 39 39 37 32 31 31 31 31 33 35 33 31 33 32 31 31 28 23 20 21 22 24 25 23 24 24 24 27 27 24 27 26 30 34 36 37 38
40 39 38 37 36 37 39 38 36 30 30 31 30 31 30 29 29 29 28 27 27 27 27 28 25 24 25 26 26 28 27 26 27 27 27 22 26 26 29 30 36 37 37
38 38 38 36 35 33 36 36 34 30 30 30 32 31 30 28 31 33 28 25 26 26 31 32 32 32 32 32 31 27 24 23 21 24 25 24 24 25 28 28 30 36 37
37 36 35 34 35 33 35 36 35 27 29 29 30 30 33 29 31 31 24 21 20 23 24 25 26 27 28 27 30 26 25 22 23 22 24 24 26 25 23 24 27 29 29

GFSMA_sfc_temp_063.txt.gz
Temp
58 58 57 58 57 57 57 56 56 56 56 56 55 55 54 54 54 53 51 59 63 66 68 67 66 66 65 64 64 64 64 64 64 64 63 63 63 62 62 62 62 62 62
58 57 56 55 54 55 55 54 53 52 51 52 52 53 52 52 52 51 51 49 58 64 66 66 66 65 65 64 63 63 63 63 63 63 62 62 61 61 60 60 61 61 62
58 56 54 54 54 54 53 52 51 50 50 52 50 51 50 50 51 51 51 52 51 58 62 64 65 64 64 64 63 62 62 62 62 61 61 60 60 60 60 60 60 60 60
57 55 54 53 53 52 51 50 50 48 48 48 47 47 47 48 49 49 49 50 49 52 54 60 63 63 63 63 63 62 62 61 60 60 60 59 59 59 59 59 59 59 59
56 54 53 52 53 52 52 51 48 48 46 47 48 47 45 45 46 51 49 49 49 49 49 57 58 59 61 62 62 62 62 60 59 59 59 58 58 58 58 58 59 59 59
56 54 53 53 53 51 49 48 48 46 45 45 52 49 43 44 44 44 45 49 48 48 48 49 49 52 58 60 60 60 60 60 59 59 58 57 57 57 57 57 57 58 58
56 54 52 52 51 50 49 49 46 46 44 43 42 42 42 42 43 43 43 43 46 47 47 47 46 45 47 55 58 60 60 60 60 60 59 58 57 56 56 56 57 57 57
55 54 52 51 50 48 48 47 46 43 43 42 41 38 37 40 42 44 42 44 42 43 45 47 45 45 44 43 47 56 57 59 60 60 59 58 57 57 57 57 57 57 57
55 54 52 50 49 48 46 45 44 44 42 42 42 41 36 33 35 39 41 40 41 40 41 42 45 45 44 42 44 46 51 53 57 58 58 57 57 56 56 56 56 56 56
55 54 52 50 48 47 46 46 46 43 42 41 40 44 40 39 34 32 37 39 39 41 39 39 40 42 42 41 45 48 50 50 52 55 56 56 56 56 56 56 56 56 56
53 53 51 48 47 46 46 45 44 43 41 40 39 38 37 36 35 33 30 33 37 39 39 38 38 38 41 40 39 44 49 49 50 53 54 55 55 55 55 56 56 56 55
50 51 52 48 47 49 46 44 42 42 41 40 39 38 38 36 35 33 30 32 31 35 37 38 38 38 38 38 44 47 49 48 49 50 51 52 53 54 54 55 55 55 55
50 51 50 49 49 45 44 44 42 40 39 38 38 38 38 38 38 37 35 33 37 38 37 35 36 36 40 35 37 45 46 45 47 48 49 50 50 51 51 52 53 53 54
49 48 48 49 47 45 43 41 39 39 38 37 37 37 37 37 38 38 36 33 32 35 29 32 34 35 34 35 39 44 37 42 44 45 46 46 47 47 48 48 49 50 51
50 48 48 45 44 43 42 40 38 38 38 38 37 36 36 37 36 36 37 37 35 30 25 29 30 34 35 34 37 35 34 40 43 43 43 44 45 45 46 46 47 48 49
49 48 46 45 44 42 41 42 39 38 38 36 37 36 35 35 36 35 35 35 33 31 29 32 31 32 33 36 36 33 33 40 39 40 41 42 43 44 44 44 45 45 46
48 47 45 44 43 43 42 40 39 39 38 36 36 35 36 36 35 36 37 35 34 30 26 28 29 29 28 28 30 29 31 31 32 39 40 40 41 41 42 42 42 43 43
47 45 44 44 44 43 41 39 38 39 37 36 36 35 36 40 35 33 31 30 29 28 27 25 26 26 26 27 27 27 32 35 31 36 38 39 39 40 40 40 40 41 41
45 44 44 43 43 42 41 39 39 38 38 36 36 35 35 34 32 30 29 29 28 32 27 25 24 25 25 26 26 28 28 29 33 37 37 37 38 38 38 39 39 40 40
44 44 43 43 42 42 40 40 40 38 36 36 35 35 34 33 32 32 31 29 29 27 26 24 24 25 24 26 25 24 25 27 28 33 34 34 35 36 37 37 38 38 39
44 43 42 42 41 41 41 39 38 36 35 34 33 35 35 38 39 35 33 29 27 25 24 23 23 22 22 22 22 25 23 24 26 27 27 28 28 30 31 33 35 37 37
42 41 40 40 39 41 40 40 38 34 34 33 31 32 35 35 35 38 37 34 29 25 23 21 21 20 20 22 20 22 22 21 20 26 24 26 28 27 29 30 34 36 37
40 39 38 38 37 36 39 40 39 33 32 31 30 30 31 35 34 32 34 34 33 32 28 23 19 20 18 22 23 22 22 23 23 26 25 25 27 25 29 32 35 36 37
38 37 36 36 35 36 38 39 38 32 30 30 33 31 30 30 30 30 28 27 27 28 28 28 24 23 24 25 24 26 25 25 25 26 25 21 26 25 28 29 34 36 37
36 35 35 34 33 33 36 37 36 30 29 29 32 31 31 29 32 34 28 25 26 27 31 32 32 32 32 32 30 21 20 20 19 22 25 23 22 25 27 28 29 35 37
35 33 32 32 33 31 35 36 35 30 29 29 29 31 33 31 32 32 24 21 20 24 25 25 25 27 28 27 29 25 20 19 20 19 23 21 24 25 22 24 25 26 29

GFSMA_sfc_temp_066.txt.gz
Temp
57 57 56 56 56 56 56 54 54 54 53 53 53 52 52 51 51 51 50 57 60 65 68 67 66 66 65 64 64 64 64 64 64 63 63 62 62 61 61 61 61 61 61
57 55 54 54 53 54 53 52 51 50 50 50 50 50 50 50 50 50 50 49 59 62 66 66 66 65 65 64 63 63 63 63 63 62 61 61 61 61 60 60 60 60 60
57 55 54 53 52 55 54 53 50 49 49 50 49 49 49 49 49 49 49 50 52 57 60 62 64 64 64 64 63 62 62 61 61 61 61 60 60 60 60 60 60 60 60
56 55 56 55 55 54 54 52 50 47 47 47 47 46 46 48 49 49 49 50 50 52 54 60 61 62 63 63 64 63 62 61 60 60 60 59 59 59 59 59 59 59 59
55 57 54 52 53 52 52 53 49 47 46 46 49 45 44 45 47 51 48 48 49 49 50 56 58 59 61 62 63 62 63 61 60 59 59 58 59 59 58 58 58 58 58
55 53 54 51 52 50 48 48 47 45 45 45 50 47 43 44 44 45 46 49 48 48 48 49 48 49 55 59 60 61 61 62 60 60 58 58 58 58 57 57 57 57 58
54 53 51 50 50 49 48 48 46 45 44 43 43 43 42 43 43 43 44 45 46 47 47 48 47 47 47 53 55 58 60 61 62 62 61 59 57 57 57 57 58 58 57
54 53 51 50 49 47 47 46 45 43 43 42 41 39 38 41 42 43 42 45 43 44 46 47 46 47 45 45 48 54 55 57 58 60 60 60 59 57 58 57 57 57 57
53 52 51 49 47 47 46 45 44 44 42 42 42 41 36 35 36 40 41 41 42 42 42 43 44 45 45 44 45 46 50 52 55 57 58 58 59 58 57 57 57 58 56
52 52 50 48 47 46 47 45 48 43 42 41 41 43 40 39 36 34 38 40 40 42 41 41 42 43 43 42 45 47 49 50 52 54 56 57 57 57 57 57 57 57 56
51 50 49 48 50 46 47 45 43 42 41 40 39 39 38 36 36 34 31 35 38 40 42 40 40 40 41 41 40 43 48 48 49 52 53 54 55 56 55 56 56 56 56
48 49 52 50 46 49 48 44 42 42 40 39 39 38 38 37 36 34 31 32 33 37 39 39 39 39 39 38 44 46 46 45 46 48 51 52 53 53 54 54 55 55 56
47 48 50 49 49 48 46 42 41 40 39 38 38 38 38 38 38 37 35 34 33 35 36 38 38 37 40 37 39 44 43 43 44 45 47 48 50 50 51 51 52 53 53
49 49 48 48 47 47 43 43 40 39 38 38 38 37 38 38 38 37 36 36 34 35 36 35 36 36 36 37 39 42 37 40 41 43 44 45 46 47 47 48 49 50 50
50 48 46 45 46 46 44 40 39 39 38 37 37 38 37 37 37 37 38 37 36 32 31 32 33 37 38 37 37 37 35 38 40 41 41 42 43 44 45 45 46 47 47
48 46 45 46 46 44 42 39 38 38 38 37 37 36 36 36 36 36 36 36 35 32 30 31 33 34 35 37 36 35 34 38 37 38 39 40 41 42 42 43 44 44 45
46 46 46 45 45 41 42 40 39 39 38 37 37 36 36 36 35 35 35 34 33 34 30 31 31 32 32 32 32 32 33 33 33 36 37 38 39 40 40 41 41 42 42
46 44 44 45 44 42 41 40 39 40 37 37 37 35 35 39 34 34 32 32 31 30 29 27 29 29 29 30 30 29 32 34 33 35 37 38 38 38 39 39 39 39 40
44 45 45 45 43 42 41 39 38 38 37 37 36 35 34 33 32 32 31 30 31 33 30 28 27 28 28 29 28 29 30 31 33 36 36 36 36 36 37 38 38 38 39
45 45 44 43 42 41 40 40 39 37 36 36 35 34 34 33 32 32 32 32 31 29 28 27 26 26 27 28 27 26 26 30 29 32 33 33 35 35 36 36 36 37 38
45 44 42 41 40 40 41 38 37 36 34 34 34 34 34 35 38 35 33 31 30 27 26 25 25 25 25 24 24 26 24 26 27 29 29 30 32 32 32 34 35 36 36
43 41 39 39 39 40 40 39 38 34 34 34 32 32 32 36 34 37 37 36 31 28 25 23 24 23 24 24 24 23 23 22 21 29 27 28 31 30 32 33 34 35 36
41 39 38 37 36 36 38 39 39 34 33 32 31 31 32 34 34 32 34 35 33 33 28 26 23 24 21 24 25 23 24 24 24 28 27 24 29 27 32 33 34 35 36
39 37 36 35 34 35 38 38 38 34 32 31 30 30 30 31 32 31 31 29 29 29 30 30 27 26 25 27 26 27 25 25 26 28 29 21 28 27 30 32 34 35 36
36 35 34 33 32 32 36 36 35 31 30 30 31 30 30 30 32 35 29 26 27 28 32 33 33 31 32 32 31 25 22 21 19 23 28 24 26 26 29 30 32 35 36
34 33 32 32 34 32 34 36 35 29 32 32 32 30 33 31 32 33 29 25 22 26 27 27 27 29 30 29 30 27 23 19 20 19 27 23 25 26 23 30 31 33 33

GFSMA_sfc_temp_069.txt.gz
Temp
63 63 63 67 66 68 67 67 67 66 65 64 64 64 64 64 65 67 68 60 62 65 68 68 67 66 65 65 64 65 65 64 64 64 63 62 62 62 61 61 61 61 61
63 64 64 65 66 67 67 67 66 65 64 65 63 63 63 64 64 64 67 66 60 62 64 66 66 66 65 64 63 63 63 63 63 63 62 61 61 61 61 61 61 61 61
64 65 65 66 66 65 63 63 63 64 64 64 62 62 63 62 64 64 66 65 66 60 61 63 65 65 64 64 63 63 62 62 62 61 61 61 60 60 60 60 60 60 60
66 65 65 65 65 65 63 64 64 62 62 64 62 62 63 63 62 63 64 64 65 66 63 60 61 62 63 64 64 64 64 62 61 61 60 60 60 60 59 59 59 59 59
64 66 64 64 65 64 64 63 61 63 62 63 63 62 62 63 62 64 62 62 62 63 65 59 57 57 58 61 62 64 64 62 61 61 60 60 59 59 59 59 59 58 58
64 63 65 63 65 62 61 62 61 61 62 62 62 61 60 60 62 62 62 63 62 61 63 61 62 62 55 57 58 60 62 63 64 62 60 60 59 59 58 58 58 58 58
61 64 64 62 62 62 62 61 61 60 60 60 60 60 58 57 57 60 61 61 61 61 60 60 61 62 62 55 55 57 59 60 61 61 61 61 60 59 57 57 58 58 59
63 64 62 62 62 61 60 60 60 59 59 58 58 56 54 56 57 58 58 58 58 60 59 58 57 58 58 59 56 53 55 56 58 59 59 60 60 60 58 58 59 58 58
64 62 62 62 61 62 61 59 58 58 57 57 55 56 52 51 52 58 55 56 56 57 57 57 56 56 56 56 55 55 51 52 55 56 57 58 58 59 59 57 57 58 58
62 62 61 61 61 60 59 59 58 57 57 56 56 56 54 53 50 49 56 56 55 55 55 56 55 55 54 55 51 49 49 49 50 53 55 56 57 58 58 58 58 56 56
62 61 61 60 59 58 56 56 56 55 58 57 55 55 53 53 51 48 46 50 54 55 56 55 54 54 53 52 54 51 47 46 47 49 51 53 54 55 56 56 55 56 57
61 60 60 58 56 56 53 53 54 53 55 55 55 53 52 50 50 48 46 48 48 51 53 54 53 53 53 53 49 46 45 44 45 46 48 49 51 53 53 54 55 55 55
59 58 58 55 57 49 48 50 53 53 53 53 52 53 52 52 52 50 47 46 45 50 49 51 53 52 51 52 51 45 44 42 42 44 45 46 47 49 50 51 52 53 53
59 57 56 52 48 47 49 50 51 54 53 51 51 50 52 52 52 51 47 45 41 46 46 46 51 50 50 50 47 44 47 42 41 42 42 43 44 45 46 47 48 49 50
57 56 54 47 46 48 52 53 54 53 51 51 50 50 50 51 51 50 49 48 43 39 43 46 45 48 49 50 47 47 46 43 40 40 40 40 42 43 43 44 45 46 47
56 54 47 46 48 53 53 52 52 52 50 50 50 49 49 50 49 49 49 48 47 44 39 47 47 47 48 48 47 45 44 40 40 38 38 39 39 40 41 42 43 44 45
49 47 47 50 53 53 53 51 51 51 49 49 49 48 48 49 48 48 48 47 46 44 39 44 46 46 44 44 45 45 43 43 43 39 37 38 38 39 40 40 40 41 42
50 48 51 54 53 53 53 51 50 50 49 48 48 47 46 48 46 47 47 46 45 45 40 39 45 43 42 44 42 41 41 42 42 40 37 37 38 38 38 38 38 39 39
52 53 53 51 52 52 51 51 50 49 48 48 48 47 47 47 46 47 46 45 45 44 42 39 40 42 42 42 41 41 40 40 41 39 37 37 37 37 37 37 38 38 38
51 51 51 52 51 51 50 50 50 49 47 47 47 46 46 46 45 45 45 44 41 39 40 38 39 40 40 41 39 37 36 39 39 40 39 37 36 37 37 37 37 37 37
52 52 51 50 50 49 50 50 49 48 47 46 47 46 46 45 41 41 42 42 41 40 39 38 38 38 38 38 36 37 34 36 37 39 39 40 40 40 41 39 39 38 37
50 49 49 48 48 48 42 39 42 47 47 46 45 47 46 41 41 38 37 37 39 41 39 38 37 36 37 37 36 34 33 31 29 40 36 35 39 38 40 41 38 37 36
49 48 47 47 47 47 39 39 38 46 46 46 46 45 44 43 40 42 38 35 36 34 33 38 34 36 34 35 35 33 33 33 32 36 35 31 37 35 40 41 38 37 36
47 48 47 46 45 46 38 38 37 44 45 45 44 44 43 43 42 40 40 39 40 40 39 38 38 38 38 37 36 35 33 32 34 36 37 27 35 34 38 39 38 37 37
47 46 46 45 44 45 38 37 38 43 42 42 43 43 42 42 39 36 36 34 37 38 37 35 35 34 33 32 33 34 29 29 28 31 35 31 33 33 35 37 41 38 37
45 46 45 45 42 43 40 37 38 41 37 39 41 40 36 36 36 34 34 33 31 35 37 36 37 36 35 36 33 34 33 28 29 28 36 29 31 32 28 37 38 39 40

GFSMA_sfc_temp_072.txt.gz
Temp
76 76 74 73 76 75 77 75 74 74 72 72 73 72 72 72 72 76 75 61 63 66 68 68 67 66 65 65 65 65 65 65 64 64 63 62 62 62 61 61 61 61 61
73 70 70 74 75 77 77 76 75 74 74 73 71 70 70 72 71 71 75 70 61 62 65 66 67 66 66 64 64 64 64 63 63 63 62 62 61 61 61 61 60 60 61
70 71 74 75 76 74 71 73 72 73 74 74 70 71 73 71 71 70 73 73 70 60 61 62 64 65 65 65 64 64 64 63 62 62 62 61 61 61 60 60 60 60 60
73 73 74 74 73 73 73 73 73 72 72 73 72 73 73 73 70 70 71 72 71 73 62 60 60 60 61 63 64 65 65 65 62 62 62 61 61 61 60 60 59 59 59
73 74 74 72 72 73 72 72 71 73 71 73 73 72 71 72 71 73 69 69 68 69 70 59 59 59 58 59 61 62 64 64 64 63 62 61 61 60 60 59 59 59 59
72 73 73 72 74 72 71 70 69 71 72 71 71 70 68 69 69 69 68 69 69 66 68 66 67 67 58 57 58 59 61 62 63 63 62 60 59 59 59 59 59 59 59
71 73 74 71 72 71 70 68 69 67 69 70 66 68 68 65 64 66 68 67 67 66 65 66 65 67 67 60 58 57 58 59 60 60 60 61 60 60 60 58 58 58 59
70 71 71 71 71 70 68 67 67 68 69 68 63 63 61 65 64 65 66 65 64 66 65 65 63 62 63 64 61 55 55 55 57 58 58 58 59 59 60 60 59 58 57
69 72 71 71 69 70 68 67 66 65 66 66 63 62 59 58 61 67 63 64 62 63 64 64 63 62 61 62 60 59 50 51 53 55 56 57 57 58 58 59 60 58 58
70 71 71 70 69 70 68 67 67 66 63 63 66 64 61 60 56 55 65 63 62 61 61 62 63 62 61 61 58 51 49 48 49 51 53 54 55 56 57 58 58 59 57
70 71 70 69 68 69 67 64 63 62 65 62 63 62 61 60 59 54 52 57 62 63 63 62 62 61 60 59 59 53 46 46 46 48 49 51 52 53 55 55 56 57 57
69 68 70 68 68 65 64 62 57 55 59 62 62 61 59 57 56 55 53 54 55 59 62 61 60 60 60 58 53 46 46 44 44 45 47 48 49 50 51 53 54 54 55
66 67 68 66 65 64 53 49 51 61 61 60 59 60 60 58 58 56 54 52 52 57 57 60 59 59 59 57 56 44 48 43 43 43 44 45 46 47 48 49 50 51 52
68 68 66 66 64 49 48 50 57 61 61 59 58 58 59 59 59 57 54 51 47 51 54 55 60 59 57 57 53 44 51 45 44 43 42 43 43 44 44 45 46 48 48
69 65 64 60 51 48 49 54 59 60 59 58 57 57 57 58 58 57 56 55 50 44 48 55 54 57 56 54 52 53 52 48 43 42 41 41 41 42 43 43 44 45 46
65 62 57 51 47 48 55 59 60 60 58 58 58 57 56 57 57 57 56 55 54 49 44 53 55 56 55 54 53 52 50 46 44 43 42 40 39 40 41 41 42 43 44
59 55 50 49 56 58 60 59 59 59 57 57 57 56 55 56 55 55 55 55 52 52 47 51 54 55 51 49 50 52 51 50 50 44 42 40 39 39 39 39 40 40 41
52 50 51 56 58 61 60 59 58 59 57 56 56 55 54 56 54 54 54 52 52 52 49 44 49 50 48 49 47 48 49 50 49 46 42 40 39 38 38 38 38 38 39
52 51 55 58 59 59 59 59 58 57 56 56 55 55 54 54 52 53 53 52 52 52 51 46 45 49 47 47 46 48 48 48 49 45 42 40 40 39 38 38 38 38 38
48 50 53 57 57 59 59 58 57 56 56 56 55 54 54 53 52 52 52 51 51 49 47 43 41 41 44 47 47 44 44 47 46 48 45 42 40 41 39 39 39 39 38
49 50 57 58 58 57 58 57 56 55 54 54 54 54 53 51 46 45 50 49 49 45 41 39 38 40 43 44 42 46 43 43 44 45 45 46 46 46 46 43 43 40 39
52 58 57 57 56 57 44 41 43 52 53 53 52 53 54 48 45 39 38 38 40 42 40 40 39 38 42 43 43 42 41 38 35 46 42 41 45 43 45 46 41 39 38
57 56 55 55 54 55 42 40 39 50 51 52 52 52 52 53 47 49 43 37 36 36 35 41 39 40 38 41 41 40 40 39 39 43 41 37 42 40 44 46 41 39 39
54 55 54 54 53 54 42 39 38 48 50 51 51 51 50 50 50 48 48 46 45 44 42 42 43 44 43 43 42 41 39 38 38 40 43 33 40 39 43 44 41 40 39
54 54 54 53 52 52 41 39 39 48 48 48 50 50 50 49 45 41 43 40 41 42 42 39 37 37 36 35 35 38 33 32 30 36 42 37 37 37 40 41 44 40 38
52 53 52 52 47 49 43 39 40 44 41 43 46 46 42 43 39 36 39 39 35 39 41 41 41 38 36 38 34 36 35 30 32 32 40 34 36 36 32 39 40 41 42

GFSMA_sfc_temp_075.txt.gz
Temp
73 75 77 78 79 77 76 76 75 76 74 74 75 74 74 73 74 77 72 62 63 66 69 68 68 67 66 65 65 65 65 65 65 64 63 63 62 62 61 61 61 61 61
70 72 74 76 75 77 79 77 76 76 76 74 72 72 72 74 73 73 76 67 62 63 65 66 67 66 66 65 64 64 64 64 63 63 63 62 62 61 61 61 60 60 61
73 73 74 74 77 78 75 75 75 75 75 75 72 73 74 72 73 72 74 74 66 61 62 63 63 64 64 65 65 65 65 64 64 63 63 62 62 61 61 60 60 60 60
73 74 75 76 76 74 75 75 74 73 73 74 73 74 73 73 72 71 72 72 71 72 61 61 61 61 61 61 63 64 64 64 65 63 63 63 62 61 61 61 60 60 60
75 77 77 76 74 75 74 74 73 73 71 73 73 72 72 72 71 74 70 70 69 69 70 61 61 61 60 60 61 61 62 63 63 64 63 61 61 60 60 60 60 60 60
75 77 77 74 75 74 73 73 71 72 73 72 73 72 70 70 71 70 69 71 70 68 68 67 66 66 60 59 59 60 61 61 62 62 62 62 61 61 61 60 59 59 60
75 75 76 73 75 73 72 70 70 68 69 71 67 69 70 68 66 68 69 69 68 68 68 66 66 67 66 59 61 59 58 59 59 60 60 60 60 59 59 60 60 59 59
69 75 75 73 73 72 69 69 69 68 70 69 64 64 62 66 66 67 68 67 66 67 66 67 66 64 64 64 62 57 57 56 56 57 58 58 58 58 58 59 59 60 59
74 75 74 73 72 72 69 68 68 68 67 68 65 62 59 59 61 67 66 66 65 64 65 65 65 65 64 63 61 58 51 51 52 54 55 56 56 56 57 57 58 59 59
69 72 74 73 71 71 70 68 69 68 66 64 63 66 64 61 55 54 64 65 66 63 63 64 64 64 64 62 60 52 49 48 48 50 52 53 54 54 55 55 56 57 58
67 72 73 71 70 70 69 68 65 63 65 58 55 62 63 62 61 56 53 58 64 65 66 65 64 63 63 62 61 52 47 46 46 48 49 50 51 52 53 53 54 55 56
66 71 72 70 70 69 67 65 62 61 55 59 63 62 60 58 57 57 54 56 56 59 63 63 63 62 61 61 59 49 47 45 45 46 47 48 48 50 50 51 52 53 54
66 69 70 68 68 67 65 60 56 53 56 59 61 61 62 61 60 58 56 54 53 57 58 61 62 62 62 60 59 50 50 46 45 45 45 45 46 47 47 48 49 50 51
69 70 68 68 67 65 60 57 55 53 56 58 59 59 60 61 61 59 56 53 48 51 55 55 61 62 61 60 53 48 53 48 46 44 44 44 44 44 44 45 46 47 48
69 67 68 66 64 60 53 51 50 55 60 60 59 59 58 59 59 59 58 56 51 44 47 54 54 60 61 59 56 56 54 50 45 45 45 44 43 43 43 43 44 44 45
65 66 64 62 55 49 48 49 55 61 61 60 60 58 58 59 59 59 58 57 55 51 46 53 55 57 59 59 57 54 54 50 48 46 44 44 43 42 42 41 42 42 43
63 61 53 50 49 50 51 55 60 60 60 59 59 58 57 58 57 57 57 57 54 54 49 52 56 57 55 54 55 54 54 52 52 46 44 43 42 41 41 40 40 40 40
53 50 50 52 52 54 57 57 58 60 59 58 58 57 57 59 56 56 56 54 54 54 51 48 52 53 53 53 52 49 50 52 51 49 45 42 42 41 40 39 39 39 39
50 52 51 49 51 54 58 61 60 59 59 58 58 57 56 56 55 56 55 54 55 55 53 51 49 53 52 52 50 49 48 49 51 49 45 43 43 42 41 41 40 39 39
48 47 48 49 50 57 60 61 60 59 58 58 57 57 56 55 54 54 54 54 54 52 51 50 49 48 47 48 47 44 43 47 47 51 48 44 44 44 43 42 41 40 39
47 52 50 50 56 60 61 59 59 57 56 55 56 57 56 54 48 48 52 51 50 48 48 47 45 43 43 42 41 44 42 43 45 47 45 47 47 47 47 45 44 43 41
50 50 52 59 58 59 43 45 45 52 53 53 53 54 56 51 50 42 42 41 43 45 43 42 41 40 41 42 43 41 40 39 37 47 43 42 45 43 45 46 43 40 40
53 55 58 57 56 57 44 42 40 50 51 51 52 52 52 55 49 54 46 39 39 38 36 42 39 40 40 43 43 41 40 39 39 43 42 38 42 40 44 46 43 41 40
56 57 56 56 55 56 43 41 39 49 50 50 51 51 51 51 52 49 49 48 48 47 43 43 42 43 44 45 43 42 40 39 40 41 41 33 40 39 43 44 42 42 41
55 55 56 55 54 54 41 39 40 48 47 47 49 49 49 48 45 41 43 43 43 43 45 41 40 40 38 36 36 38 35 33 32 34 40 37 38 37 39 40 42 39 39
55 56 54 53 47 50 39 39 41 43 41 42 44 45 41 42 37 37 39 38 35 38 39 41 43 40 38 40 34 37 37 32 32 32 38 35 35 37 32 39 40 41 41

GFSMA_sfc_temp_078.txt.gz
Temp
66 67 68 68 69 68 67 66 66 66 66 66 65 66 65 64 64 63 58 62 64 67 69 69 68 67 66 65 65 65 65 64 64 64 63 63 62 62 62 61 61 61 61
66 66 67 68 67 68 68 67 65 65 64 64 63 64 64 63 64 63 60 57 62 64 65 66 67 67 66 65 64 64 65 65 63 63 63 63 62 62 61 61 61 60 61
67 67 66 66 66 68 66 66 65 64 63 65 63 63 63 64 63 63 61 59 58 61 62 64 64 63 64 64 64 64 65 65 65 63 63 63 63 62 62 61 60 60 60
67 67 67 66 67 65 65 63 62 61 61 61 61 61 62 62 63 62 62 60 59 60 60 62 62 62 62 62 63 63 63 63 63 64 63 63 62 62 61 61 61 61 60
68 66 66 66 66 65 63 64 62 61 60 61 62 60 60 59 61 66 62 61 59 59 57 60 61 61 62 62 62 62 62 63 63 63 63 63 62 61 61 61 60 60 59
69 67 67 65 66 64 63 62 61 61 60 59 67 63 59 59 59 58 59 63 60 59 59 58 55 56 60 61 61 61 61 61 61 61 61 61 61 60 60 60 60 61 59
69 68 67 65 64 63 62 62 60 59 58 59 56 57 57 58 57 56 57 57 59 60 58 57 55 54 55 60 61 61 59 60 60 60 59 59 59 58 58 59 59 59 60
68 68 66 65 64 62 60 60 59 58 58 58 53 53 49 52 54 57 55 57 55 57 58 59 57 57 55 53 53 59 60 58 57 57 57 57 57 57 57 57 58 59 59
64 64 67 65 63 62 59 59 59 59 55 57 57 52 48 46 48 53 53 54 54 53 54 56 57 57 56 53 55 52 53 53 53 54 55 55 55 55 55 56 56 57 58
65 68 69 65 63 62 60 59 62 58 57 53 56 60 55 52 45 43 51 52 53 54 53 52 53 55 56 53 56 51 50 49 50 51 52 53 53 54 54 54 55 55 56
62 62 64 65 63 62 61 60 58 57 56 54 52 54 54 51 49 45 42 46 51 53 52 51 51 51 55 53 49 47 48 47 48 48 49 50 51 52 52 52 53 54 54
61 62 65 64 62 62 61 58 57 55 53 53 54 54 51 49 47 45 42 44 44 48 50 51 50 50 50 51 56 50 48 47 47 48 48 49 49 50 50 51 51 52 52
60 61 63 61 61 62 58 56 53 52 53 51 53 53 52 50 51 49 45 43 42 45 45 48 49 50 54 49 49 48 48 46 47 48 47 47 47 48 48 48 48 49 50
61 62 62 62 61 59 54 53 52 52 52 51 53 51 51 52 51 49 47 42 37 40 42 44 48 48 48 49 48 49 47 46 46 46 46 46 46 47 46 46 46 46 47
63 62 62 60 57 55 53 52 49 50 49 49 51 52 51 51 49 49 48 46 41 34 37 41 42 48 48 48 46 43 44 49 47 45 45 45 46 46 46 45 44 44 45
61 60 59 55 52 51 49 49 48 49 48 51 53 52 50 50 49 48 47 47 45 41 38 42 44 45 47 53 50 47 47 50 45 44 44 45 46 45 45 44 44 43 43
55 51 51 50 49 49 49 47 48 49 52 53 53 51 50 52 48 47 47 46 44 43 40 43 44 45 44 44 47 45 47 44 45 46 45 45 44 44 43 43 42 42 41
52 50 50 50 50 51 51 49 49 52 52 52 52 51 51 55 48 47 45 44 44 44 42 40 43 42 42 43 43 42 46 49 45 48 45 44 43 42 42 41 41 41 41
51 51 51 50 50 49 49 49 52 52 53 52 51 49 49 49 46 45 45 44 44 49 42 38 41 41 40 41 39 39 39 39 46 48 45 44 43 43 43 42 41 41 41
51 50 50 49 49 49 51 53 55 53 51 51 50 49 49 48 46 45 46 43 45 40 38 37 38 37 36 38 36 34 35 36 38 47 46 44 43 44 44 42 41 41 41
49 48 48 48 49 51 54 52 53 49 47 47 48 50 49 48 46 44 46 42 41 41 40 38 37 37 35 35 33 33 35 33 34 38 36 36 36 36 38 42 43 43 42
47 48 49 49 49 53 41 44 46 46 47 46 44 46 47 46 47 43 41 40 41 40 39 37 38 35 34 32 32 32 33 31 27 35 36 31 34 32 35 36 42 41 41
47 47 48 49 51 51 42 42 42 45 44 43 42 43 45 51 44 45 43 40 38 38 36 39 36 35 34 33 32 31 33 31 29 32 31 28 31 29 34 42 42 41 41
49 49 50 52 50 50 42 41 39 42 42 42 42 42 42 41 41 39 37 36 37 39 40 39 37 36 37 37 34 34 32 31 30 31 33 23 29 29 32 33 41 42 41
51 50 50 49 48 42 39 38 40 40 40 38 42 41 40 37 39 40 34 33 34 35 41 41 40 38 38 39 36 30 26 25 24 28 30 26 29 29 29 29 32 41 40
52 51 49 45 43 39 38 38 39 33 33 32 35 38 37 36 36 36 33 32 31 33 33 35 35 36 36 35 35 33 30 27 27 24 30 26 28 28 24 29 29 30 30

GFSMA_sfc_temp_081.txt.gz
Temp
64 63 63 63 63 63 62 61 62 63 62 62 61 61 61 60 58 56 54 63 65 68 69 69 67 67 66 65 65 65 64 64 64 64 63 63 62 62 61 61 61 61 61
62 62 64 64 63 64 64 63 62 61 60 61 60 61 60 59 57 56 55 56 63 65 67 68 67 67 66 65 64 64 65 65 64 64 63 63 63 62 61 61 61 61 61
64 64 62 62 63 63 63 63 61 59 58 61 60 60 60 59 59 57 56 55 57 62 63 65 65 64 64 64 64 64 64 64 64 64 63 63 62 62 62 61 61 61 61
66 62 61 61 62 61 61 60 59 57 57 56 56 55 56 58 59 59 56 55 54 57 60 62 63 63 63 63 63 64 64 63 63 63 63 64 61 61 61 61 61 60 60
65 63 61 61 61 61 60 61 58 57 56 55 57 55 56 55 58 62 58 56 54 54 53 60 61 61 62 62 62 63 63 63 62 62 62 62 61 61 61 60 61 61 61
66 63 62 61 61 61 59 58 58 56 56 55 63 59 54 55 55 54 56 59 55 54 53 54 53 54 60 62 62 62 61 62 61 61 61 60 60 59 59 59 59 60 60
66 62 62 60 61 59 58 58 55 55 54 54 53 52 53 53 54 53 53 54 55 56 54 52 51 51 54 61 61 62 61 61 61 60 59 58 58 58 58 58 58 58 59
63 62 62 61 61 59 57 56 56 54 53 53 51 49 47 50 51 54 52 54 52 54 56 55 53 52 50 50 52 61 61 60 58 57 57 57 56 56 56 56 57 57 58
62 63 63 62 60 57 56 55 55 55 52 52 54 51 46 44 46 49 50 50 51 50 51 53 54 54 52 50 52 55 56 56 56 56 55 55 55 55 55 55 56 56 56
61 62 63 63 61 59 58 56 58 54 53 51 51 55 52 49 44 42 47 48 50 51 49 48 50 52 52 49 50 50 52 52 53 54 54 53 53 53 53 54 54 54 54
60 61 61 60 61 58 57 57 55 54 53 50 49 50 52 48 46 44 41 45 48 49 49 48 47 47 51 50 44 47 50 49 51 53 53 52 52 52 52 52 52 52 52
57 59 60 60 60 59 58 58 54 52 51 51 51 50 51 47 48 43 40 40 42 45 47 46 45 46 47 47 50 50 49 48 49 51 51 52 52 51 51 51 51 51 51
56 58 59 58 60 59 56 56 54 52 51 50 50 51 52 51 48 46 43 43 41 42 43 44 46 45 49 45 46 49 49 47 48 49 50 50 50 50 49 50 49 49 49
58 57 58 57 58 57 56 54 52 51 51 49 51 51 51 51 51 49 46 42 38 40 39 41 43 45 44 45 46 49 45 47 47 47 49 49 49 49 48 48 48 47 48
58 57 59 58 55 54 53 51 49 49 49 49 49 49 49 49 49 49 48 45 41 33 34 38 40 45 45 45 45 43 41 46 46 46 46 47 48 48 48 47 47 47 46
59 57 55 53 51 50 49 48 47 48 49 48 49 48 49 49 49 48 47 46 42 39 38 39 40 42 44 50 47 43 42 47 46 46 45 45 46 47 47 47 46 45 45
56 54 51 49 50 51 49 48 48 48 48 47 49 48 48 49 47 45 44 44 42 40 37 39 40 42 40 41 44 43 42 42 42 44 43 44 44 44 45 45 45 44 44
52 51 51 52 51 49 49 49 48 49 48 48 49 49 48 51 45 44 42 42 41 41 40 40 39 38 40 43 42 40 45 48 43 45 44 45 45 44 44 43 42 42 42
51 52 51 50 50 51 50 49 49 49 49 50 49 47 47 46 43 42 42 40 40 44 38 34 34 36 36 37 37 38 38 38 43 46 44 44 44 44 43 42 42 42 42
50 51 51 51 50 50 50 50 50 49 48 47 47 46 46 45 43 42 42 40 41 37 36 33 33 33 33 35 34 32 31 32 34 43 44 42 42 43 43 43 42 42 42
50 50 49 49 49 49 50 49 51 47 44 44 44 46 45 45 44 42 42 38 36 34 32 32 34 30 29 30 31 31 31 30 30 32 33 37 34 34 35 40 42 42 42
48 49 49 49 47 52 46 44 44 42 44 43 41 41 42 43 43 41 40 38 36 32 31 29 33 32 33 30 31 31 29 29 25 31 30 29 32 30 33 33 40 41 42
47 47 48 48 47 47 41 42 41 42 41 40 38 38 40 45 39 38 37 36 35 37 33 31 31 32 33 32 32 33 30 30 28 30 31 27 28 28 31 38 40 41 41
47 47 47 47 46 45 40 39 40 39 38 38 38 37 36 35 36 36 34 31 31 32 34 36 32 33 34 36 36 35 34 30 29 29 30 21 26 27 28 30 38 40 41
47 47 48 46 41 39 38 38 38 36 36 34 37 36 36 33 36 38 33 30 31 31 38 38 38 38 38 38 37 34 30 29 21 25 28 25 27 25 27 27 31 38 39
49 46 44 40 38 35 37 38 36 31 31 30 32 33 34 34 34 34 31 29 28 30 31 32 33 33 34 34 35 35 33 28 25 21 28 26 26 25 21 27 28 29 28

GFSMA_sfc_temp_084.txt.gz
Temp
62 62 61 60 60 61 60 60 60 61 60 59 59 59 57 56 55 55 54 64 66 68 69 68 67 67 66 65 65 65 65 64 64 64 63 63 62 62 61 61 61 61 61
60 60 61 60 61 61 60 60 60 59 59 59 58 59 57 56 56 55 54 56 63 65 67 68 68 67 66 65 64 65 65 65 64 64 63 63 63 62 62 61 61 61 61
62 61 61 60 61 60 60 60 59 58 57 59 58 58 57 56 56 54 54 54 57 62 64 66 65 65 65 64 64 64 64 64 63 63 63 63 62 62 61 61 61 61 61
62 60 59 60 60 60 59 58 57 56 55 55 54 55 55 56 55 54 54 54 53 56 60 63 64 64 64 64 64 64 64 63 63 63 63 62 62 61 61 61 61 61 61
63 61 59 59 59 58 58 58 55 55 52 52 54 52 52 53 55 58 54 54 53 53 52 60 62 62 63 63 63 63 63 62 62 61 61 61 60 60 59 59 59 59 60
62 60 59 59 58 58 57 56 56 54 53 53 60 56 51 52 52 52 53 56 53 53 52 53 53 54 60 63 63 63 62 62 61 61 60 59 59 58 58 58 58 58 59
62 61 60 58 59 59 57 57 54 54 51 52 52 50 50 50 51 50 51 51 52 53 51 51 49 49 52 61 62 63 62 62 62 61 59 58 57 57 57 57 57 57 58
63 62 61 60 61 59 56 55 54 52 52 51 50 47 47 50 50 52 50 51 50 52 52 52 50 51 50 50 52 62 63 63 61 60 58 57 56 56 56 56 56 56 56
62 63 61 60 60 60 57 55 54 54 51 50 51 50 43 43 43 47 49 48 49 49 50 51 52 52 50 48 52 55 58 59 60 60 59 57 56 55 55 55 55 55 55
61 62 62 61 60 57 55 56 57 53 52 50 49 52 49 47 43 43 47 47 48 49 47 47 48 50 50 47 50 51 53 54 57 59 58 57 56 55 54 54 54 53 54
60 61 60 59 57 57 56 56 54 53 52 50 49 49 48 46 45 43 41 44 46 46 46 46 45 46 48 47 45 47 51 51 53 56 57 57 56 55 54 53 53 53 53
59 59 61 59 59 57 56 59 57 52 51 50 50 50 48 46 45 43 42 41 43 45 45 45 45 45 45 45 49 50 50 49 50 53 55 55 55 54 54 53 53 52 52
57 58 59 57 57 57 56 58 56 53 52 51 50 49 49 49 49 47 45 41 40 41 43 45 46 45 47 43 44 50 50 48 48 50 52 53 53 53 53 52 52 52 51
60 61 59 57 56 56 56 54 51 50 49 48 47 47 47 49 50 50 47 41 36 36 38 42 43 44 45 44 45 49 44 48 47 48 50 51 51 51 51 51 51 50 50
61 57 58 56 54 54 52 51 49 48 48 47 47 47 48 49 48 49 48 44 39 34 34 38 39 45 45 44 45 43 42 46 47 46 47 48 50 50 50 50 49 49 49
58 56 56 54 51 50 50 50 49 48 49 47 48 47 48 47 48 48 46 43 41 38 34 39 40 41 43 48 46 45 42 46 46 45 45 46 47 48 48 48 48 48 48
57 56 54 52 51 51 51 51 50 48 48 48 49 48 48 48 48 45 43 42 41 39 36 39 38 40 38 40 42 42 41 39 39 45 44 45 45 45 45 46 46 46 47
56 54 53 52 52 52 51 50 48 49 48 48 48 47 48 50 46 44 41 40 39 38 36 35 36 36 37 39 38 39 44 45 41 45 44 45 45 44 44 44 44 44 44
53 53 52 52 51 50 50 50 50 49 48 48 48 48 48 47 42 40 40 39 38 42 37 33 34 34 34 35 35 36 36 36 40 45 44 43 43 44 44 45 43 43 42
52 52 53 52 51 51 51 50 49 48 48 48 48 47 45 43 41 40 39 37 38 34 33 31 30 31 31 33 32 31 32 31 33 41 43 41 41 43 44 43 43 42 42
52 52 51 51 51 51 51 49 49 47 46 44 44 43 42 43 43 40 39 34 32 30 29 28 29 28 28 28 29 31 30 31 30 31 33 33 33 34 37 41 42 42 42
50 50 49 49 48 50 42 43 45 44 44 43 40 40 42 41 39 38 38 38 35 31 29 27 27 28 29 29 29 30 34 31 31 30 33 31 31 31 33 32 39 40 41
48 48 48 48 47 47 41 41 40 42 41 39 37 38 40 41 37 35 35 35 34 36 32 30 27 28 29 29 29 31 33 33 32 32 30 27 27 28 32 36 39 40 40
47 47 46 46 46 44 39 39 38 37 36 38 37 35 34 32 33 34 32 31 32 32 33 34 32 32 31 31 30 32 33 33 34 30 31 28 26 27 28 29 37 39 40
46 45 46 44 41 39 38 38 38 37 35 33 35 34 33 31 34 36 31 29 29 31 36 37 37 37 37 37 36 33 31 30 29 28 30 31 26 25 26 27 29 38 39
46 44 42 40 38 37 37 37 36 32 30 30 32 33 33 32 33 33 29 28 27 29 29 30 32 32 35 35 34 33 32 28 29 28 29 28 27 25 20 26 27 28 28

GFSMA_sfc_temp_087.txt.gz
Temp
63 63 59 60 61 58 58 58 58 59 58 58 56 55 55 54 54 53 54 64 66 68 69 68 67 66 66 65 64 64 65 64 64 64 63 63 62 62 61 61 61 61 61
61 61 58 59 58 58 58 60 58 57 56 56 55 56 55 54 54 54 55 59 64 66 67 68 67 66 66 64 64 64 64 64 64 64 63 63 62 61 61 61 61 61 61
61 63 59 60 59 58 58 57 57 55 55 57 55 55 54 54 54 54 54 55 57 63 64 66 66 66 66 65 64 64 64 63 63 63 63 62 61 61 61 61 61 61 61
62 60 58 58 58 58 58 57 55 54 53 53 53 53 53 53 53 53 53 53 53 56 61 63 64 65 64 64 64 64 63 63 62 62 61 61 61 60 59 59 59 59 60
61 61 58 57 58 57 56 57 54 54 52 51 52 50 50 50 52 56 52 52 51 52 52 61 62 62 63 64 64 64 63 62 62 61 61 60 59 58 58 58 58 58 58
62 59 58 57 57 56 55 55 54 52 52 51 57 53 49 50 50 49 51 54 51 52 52 53 53 54 61 63 64 63 63 63 62 61 60 59 58 58 57 57 57 57 58
61 59 58 57 56 57 56 55 53 52 50 50 49 48 48 49 49 48 49 50 51 52 50 50 49 49 52 61 63 64 64 63 63 62 60 59 58 57 56 56 56 57 57
60 60 59 57 57 56 55 54 54 51 51 50 48 46 45 48 47 49 48 49 48 50 50 51 49 49 49 49 53 63 64 64 64 62 61 59 58 57 56 56 56 56 56
61 61 60 59 58 58 56 54 53 54 50 48 49 49 43 43 43 46 47 46 47 46 48 49 50 50 48 47 51 55 58 59 63 62 61 60 58 57 56 56 55 55 54
60 61 61 59 58 56 54 55 55 52 52 50 48 50 47 46 43 43 45 45 45 47 46 46 47 49 49 47 50 51 51 54 57 61 61 61 59 57 56 55 55 54 54
61 62 61 59 58 57 57 55 53 54 55 53 51 49 47 45 43 42 41 44 44 45 45 45 45 45 47 46 44 47 51 51 53 57 60 60 59 58 56 56 55 54 54
58 59 59 58 59 57 55 54 54 55 55 53 52 51 50 48 46 43 42 43 42 45 45 45 44 45 45 45 49 51 50 49 50 53 56 57 58 58 57 56 55 55 55
56 57 57 56 57 57 55 55 55 55 53 51 51 47 48 47 48 46 44 43 41 44 45 46 45 44 46 43 44 50 51 48 49 51 53 54 55 56 56 56 55 55 54
60 59 58 59 57 55 54 53 52 51 51 49 48 48 47 47 47 46 46 43 40 41 41 45 44 43 42 42 43 48 44 48 48 48 49 51 53 53 54 54 54 53 52
61 60 58 58 56 55 54 52 50 50 50 49 48 47 48 47 47 48 47 45 43 38 37 41 39 43 43 42 44 42 41 46 47 47 47 48 50 51 52 52 51 51 50
60 58 56 56 54 53 52 51 50 50 50 49 48 47 48 48 48 47 47 46 44 42 34 38 39 40 41 45 45 43 41 46 46 45 45 46 47 48 49 49 49 48 48
57 56 56 55 53 52 51 52 51 50 50 48 48 48 48 49 48 47 46 45 43 39 34 36 37 38 37 39 41 40 41 40 39 44 44 45 45 45 46 46 46 46 47
57 56 55 54 52 52 52 51 50 50 50 48 48 48 48 49 47 46 44 43 42 37 36 33 35 35 35 37 37 37 41 43 39 44 43 44 44 44 44 44 44 44 44
56 55 54 54 52 52 51 52 51 50 49 49 48 48 47 47 45 43 43 41 37 40 35 32 32 32 33 34 34 35 35 35 39 44 43 43 43 44 44 44 44 43 43
57 55 54 54 53 52 52 51 51 49 49 49 48 47 47 45 44 42 41 37 37 34 32 30 29 29 30 32 30 29 30 31 32 40 42 42 41 43 44 43 43 43 42
57 55 54 53 53 52 51 50 50 49 48 45 45 45 44 43 42 41 38 35 33 30 29 28 27 27 27 28 28 29 28 31 30 32 33 33 35 35 35 40 41 42 41
52 53 52 51 50 51 43 43 46 46 45 42 40 40 41 41 39 38 38 36 34 31 29 26 27 27 27 27 28 27 27 27 26 30 28 30 31 32 34 31 38 40 41
50 50 50 49 49 48 44 42 40 43 41 39 38 38 40 40 37 37 36 36 34 36 32 30 27 26 26 28 28 27 26 27 29 33 31 31 29 30 33 36 38 39 40
48 48 47 48 46 45 40 39 37 38 37 38 37 37 35 34 35 34 32 31 32 32 32 32 29 28 28 30 30 31 31 32 33 34 34 28 28 29 30 32 37 39 40
46 46 46 44 42 39 37 37 38 37 36 35 35 35 34 32 34 35 31 29 29 31 35 36 36 36 36 36 36 33 30 29 28 30 31 30 30 27 27 28 30 37 38
44 42 39 39 37 36 36 37 36 34 32 31 32 32 33 31 32 33 30 28 27 30 29 30 31 33 34 33 34 33 32 27 28 27 31 27 28 27 26 26 27 29 29

GFSMA_sfc_temp_090.txt.gz
Temp
63 62 59 59 60 57 59 57 58 57 55 56 55 55 54 55 55 56 58 64 66 68 69 68 67 67 66 65 65 65 65 64 64 64 63 63 62 62 61 61 61 62 62
62 61 61 61 60 59 58 59 58 56 54 55 54 55 55 54 55 56 58 61 64 66 68 68 67 66 66 65 64 64 64 64 64 63 63 62 62 62 61 61 61 61 61
61 61 61 61 60 58 57 58 55 54 53 55 53 54 54 54 55 55 57 58 61 63 65 67 67 67 66 65 64 64 64 63 63 63 62 62 61 60 60 60 60 60 60
61 58 58 60 59 58 58 56 55 53 52 53 52 52 53 54 55 54 54 55 55 58 62 64 65 66 65 65 65 64 64 63 63 62 61 61 60 59 59 59 59 59 59
60 60 58 59 59 58 57 57 53 53 52 52 52 51 51 51 52 55 53 53 53 54 55 61 62 63 64 64 65 65 64 63 62 62 61 60 59 59 58 58 58 58 58
61 59 57 58 58 56 54 54 53 52 52 52 57 53 50 50 50 51 52 54 52 53 53 54 56 57 61 64 64 64 64 63 63 62 61 60 59 58 57 57 57 57 57
62 60 58 57 56 57 56 54 52 53 51 51 50 49 49 49 49 49 50 51 52 52 52 52 52 52 55 62 63 64 64 64 63 62 62 60 59 58 57 57 57 56 56
62 61 60 57 57 55 54 53 53 51 51 50 49 47 47 49 48 49 48 49 49 50 51 51 50 50 50 52 55 63 64 65 64 64 63 61 60 58 58 57 57 56 56
60 61 59 58 56 56 55 53 52 53 50 48 49 50 43 44 45 47 47 47 48 47 49 50 50 50 49 49 53 55 57 59 63 64 64 62 61 59 58 57 57 56 56
59 59 59 58 57 56 54 54 53 53 52 50 48 50 48 48 46 45 46 47 47 48 47 47 49 49 50 49 51 51 51 52 56 61 62 63 62 61 59 58 57 56 56
59 59 59 58 56 58 57 55 54 52 52 52 51 49 49 47 45 45 43 45 46 46 47 47 46 47 49 48 48 49 51 50 52 56 59 61 61 61 60 59 58 57 56
56 57 59 59 59 57 56 55 54 53 53 52 55 52 50 49 46 47 45 44 45 48 48 47 46 46 47 48 50 51 50 49 50 53 56 57 59 59 60 59 58 58 57
55 56 56 56 56 56 56 55 54 54 53 52 53 52 50 50 48 46 46 43 43 44 46 47 48 47 48 46 47 51 52 49 49 51 53 54 55 57 57 58 59 58 58
58 57 56 57 57 57 56 55 55 54 53 52 51 49 49 48 48 48 46 43 39 41 43 46 47 47 46 46 46 48 47 47 48 48 50 51 52 53 54 55 56 56 56
58 56 56 57 57 57 56 54 54 52 51 51 50 50 50 48 48 49 48 46 45 39 39 44 44 46 46 44 45 44 44 46 47 47 47 48 50 51 52 52 53 53 53
56 57 56 57 56 54 53 53 52 52 51 51 51 50 50 49 48 48 48 47 46 44 40 44 44 45 45 46 45 45 43 46 46 46 45 46 47 48 49 50 50 51 51
58 57 58 57 55 53 52 52 51 51 51 50 51 50 50 50 48 48 47 46 45 43 41 42 42 42 41 41 43 43 43 42 43 44 44 45 45 45 46 46 47 48 49
58 58 57 56 56 54 52 52 52 52 50 50 50 50 50 49 48 48 46 44 44 43 40 39 40 38 38 40 40 39 43 44 43 44 44 44 44 44 44 44 44 45 45
58 57 57 57 57 55 54 53 54 53 51 52 51 50 49 47 46 44 44 44 42 43 39 37 36 35 36 37 37 38 38 39 41 44 43 43 43 44 44 43 43 43 43
59 57 56 56 56 55 54 53 52 52 51 51 50 49 49 48 47 44 43 42 40 38 36 33 32 34 34 36 34 34 34 35 36 41 42 41 41 42 43 43 43 43 43
58 58 57 56 54 54 53 52 51 51 49 48 47 46 45 44 43 42 41 38 37 35 34 32 31 31 31 32 33 33 32 32 33 35 36 36 37 37 38 39 41 42 43
56 57 54 53 52 52 46 44 48 49 48 45 42 40 40 39 38 37 37 37 37 35 33 32 31 31 32 32 32 31 30 28 28 34 32 32 36 36 37 38 38 39 40
53 52 52 52 52 51 43 43 42 46 45 41 38 37 38 38 37 36 36 36 35 36 33 33 30 30 30 31 31 30 29 29 30 34 33 32 35 34 37 38 38 39 39
49 48 47 47 45 42 39 39 39 39 37 37 37 36 34 34 35 35 34 34 33 33 34 33 32 31 31 32 31 32 31 32 34 35 35 28 34 33 35 35 37 39 40
46 44 44 42 40 37 37 37 37 36 34 33 34 34 34 33 34 34 32 30 30 32 35 35 35 35 36 36 35 33 30 29 28 31 34 31 32 32 33 33 35 37 39
42 40 37 37 36 35 36 36 36 34 31 30 30 30 30 30 32 32 30 30 28 30 30 30 31 31 32 32 32 32 31 28 29 28 33 29 31 30 28 31 31 33 36

GFSMA_sfc_temp_093.txt.gz
Temp
69 72 70 72 71 70 69 70 70 69 68 67 68 68 68 69 70 72 73 65 66 68 69 68 68 67 66 66 66 65 65 65 65 64 63 63 62 62 62 62 62 62 62
68 70 69 70 69 71 71 70 69 69 68 68 67 68 68 69 69 70 72 70 64 66 68 68 68 67 67 66 65 65 65 65 64 64 63 63 62 62 62 61 61 61 61
68 69 68 68 70 68 66 68 67 67 67 68 66 66 67 67 68 68 71 71 68 63 65 67 67 67 66 66 65 65 64 64 64 64 63 62 61 61 60 60 60 60 60
68 67 68 69 69 67 68 66 66 66 66 67 65 66 67 66 67 67 68 69 69 70 65 65 66 66 66 66 66 65 64 64 64 63 62 61 61 60 59 59 59 59 59
67 66 67 67 67 67 65 66 65 66 64 67 66 65 64 65 65 65 64 65 67 68 69 64 63 64 65 65 66 66 65 64 63 63 62 61 60 60 59 59 58 58 58
66 65 65 66 67 67 65 66 64 65 66 65 66 63 63 62 61 62 65 66 65 65 67 68 67 66 62 65 65 66 65 64 64 63 62 61 60 60 59 58 58 58 58
65 64 66 65 66 66 66 64 64 62 62 63 61 60 60 60 60 62 64 65 64 65 66 66 67 68 67 63 64 65 66 65 64 64 62 61 61 60 59 58 58 58 57
64 63 65 64 66 65 64 63 63 59 61 61 62 62 58 60 61 62 62 63 63 65 64 64 65 65 66 68 66 64 65 65 65 64 64 62 61 60 59 58 58 58 57
62 63 65 64 63 65 64 62 61 62 60 60 62 63 56 57 60 60 59 61 62 62 65 65 64 64 64 66 63 62 58 60 64 65 65 64 62 61 60 59 58 58 58
62 62 63 64 64 64 63 63 62 61 63 61 60 60 59 61 59 58 59 60 60 61 61 63 64 63 63 63 61 58 53 54 57 60 63 64 64 63 61 60 59 59 58
60 60 62 62 64 65 64 62 61 61 61 62 60 59 57 59 58 60 61 59 58 52 56 62 63 62 58 61 62 59 53 51 52 56 59 61 62 63 62 62 61 60 58
61 62 62 62 65 66 64 62 61 60 60 59 61 57 55 57 54 50 54 47 50 58 60 51 51 52 53 55 56 53 51 50 51 53 56 58 59 60 61 61 61 61 60
64 64 65 65 66 65 65 65 63 61 60 60 61 57 55 58 57 52 59 49 49 55 52 49 49 50 51 50 50 52 52 49 49 51 53 55 57 57 58 59 59 60 60
66 66 65 66 66 66 65 64 63 62 61 57 55 54 56 57 58 59 53 48 43 47 46 49 49 48 49 49 49 50 54 49 48 49 51 53 54 54 55 56 57 58 58
66 65 66 65 66 65 65 64 63 63 62 60 58 56 57 60 60 60 58 52 52 46 43 47 52 57 51 50 50 51 54 53 48 48 48 49 51 52 52 53 53 54 55
65 65 65 65 65 65 64 63 62 63 59 59 57 54 55 58 57 57 55 50 54 53 48 52 51 57 51 50 51 51 56 51 47 46 46 46 47 49 49 50 51 51 52
65 64 65 65 64 64 62 60 59 59 54 54 53 53 52 54 51 50 49 48 50 52 51 52 58 57 46 47 50 52 55 55 56 45 44 45 45 45 46 46 47 48 49
64 64 64 65 64 62 58 55 54 55 53 53 52 51 51 52 50 50 51 49 53 51 48 47 51 43 43 47 52 52 53 55 55 48 44 44 44 44 44 44 44 44 45
64 64 64 63 62 59 56 58 57 56 54 54 54 52 52 52 50 50 51 52 51 45 45 44 42 41 42 47 48 50 49 50 50 47 43 43 43 44 44 44 43 43 43
64 64 64 63 62 61 59 58 57 55 54 55 56 54 53 52 50 50 49 47 45 41 39 39 37 39 43 47 47 47 45 48 48 49 46 43 43 43 43 43 42 43 43
64 64 63 61 60 59 57 56 55 55 55 53 52 52 51 50 47 48 46 42 40 37 35 35 35 37 41 39 41 46 44 46 46 45 44 45 44 44 44 43 43 42 41
63 62 60 58 58 56 48 45 49 52 53 51 48 42 42 41 40 38 38 37 39 36 34 35 36 35 35 37 41 41 40 38 37 44 41 41 44 41 42 44 43 40 40
61 58 57 56 54 52 44 43 41 47 45 41 39 39 38 37 36 35 35 35 34 34 33 36 35 34 35 38 39 38 38 37 38 43 40 37 41 39 44 45 41 40 39
50 48 47 46 42 39 38 39 38 40 38 37 37 36 35 34 34 33 33 32 32 32 34 34 35 37 38 38 38 38 38 37 39 40 40 31 40 40 43 44 41 40 39
43 42 41 39 37 36 36 37 37 35 33 32 33 33 33 32 32 33 31 30 30 31 34 34 34 34 34 34 35 35 33 33 32 37 41 37 39 39 41 41 43 40 39
38 37 35 35 35 35 35 35 35 33 31 30 30 30 30 30 30 31 31 31 30 31 31 31 32 32 31 33 31 33 32 29 31 32 40 35 37 38 33 42 43 42 43

GFSMA_sfc_temp_096.txt.gz
Temp
71 76 79 80 80 81 79 78 79 77 76 76 77 77 77 78 78 79 76 65 66 69 69 69 68 67 67 66 66 66 65 65 65 64 64 63 63 63 62 62 62 62 62
70 73 77 79 80 81 81 79 78 77 77 76 75 76 76 77 77 78 78 73 65 67 68 69 68 68 67 67 66 65 66 65 65 64 64 63 63 62 62 61 61 61 61
69 71 75 77 79 80 77 78 77 77 77 77 75 75 76 76 77 76 78 76 72 64 65 67 67 67 67 66 66 66 65 65 65 64 63 63 63 61 61 61 60 60 60
70 73 76 76 78 77 77 76 76 75 75 76 75 76 76 75 75 75 77 76 75 75 65 65 66 66 66 66 66 66 65 65 64 64 63 62 61 61 60 60 60 60 59
69 75 75 75 75 75 74 74 74 74 73 74 75 75 75 75 73 75 74 74 74 74 74 64 64 64 65 66 66 66 66 65 65 64 63 62 61 61 60 60 59 59 59
69 72 73 73 74 74 73 74 73 74 74 74 76 73 72 73 72 72 73 73 72 72 73 72 70 69 63 65 66 66 66 65 65 64 63 62 61 61 60 60 59 59 59
69 71 73 72 74 73 73 72 72 70 71 71 70 70 68 68 67 70 70 70 70 71 72 73 73 74 70 63 65 66 67 66 65 65 63 62 61 61 60 60 59 59 59
70 70 72 71 73 73 71 70 70 69 68 67 64 67 62 65 68 68 71 70 70 72 72 71 72 72 74 72 68 65 66 66 66 65 64 63 62 61 60 60 59 59 59
69 70 73 72 73 73 70 69 68 68 66 64 67 67 63 62 68 70 67 69 69 69 72 72 71 72 72 73 69 65 60 62 65 66 65 64 63 61 61 60 60 59 59
64 68 72 72 71 72 70 69 69 69 69 65 65 67 68 68 64 61 67 68 69 66 69 71 72 68 69 72 67 63 57 56 59 63 65 65 64 63 62 61 61 60 60
65 64 65 65 68 70 69 69 68 68 70 69 67 66 65 66 67 61 61 64 67 69 71 69 66 63 67 67 65 64 55 52 54 58 61 62 63 63 63 63 62 61 61
69 67 66 65 67 70 70 70 70 68 67 67 70 66 66 64 65 63 52 51 55 63 63 58 60 65 66 59 60 57 54 51 51 54 57 59 60 61 62 63 63 62 62
64 64 66 64 67 70 72 71 70 69 69 66 65 66 61 63 63 63 57 52 49 56 59 61 60 66 60 57 57 54 53 50 50 52 54 56 57 59 60 60 61 61 61
70 71 70 70 67 67 70 70 70 70 70 68 67 67 65 66 60 56 55 50 49 52 61 53 63 58 58 59 55 51 57 49 49 50 52 53 55 55 56 57 58 59 59
72 71 71 71 72 72 71 71 70 70 70 68 68 66 63 61 59 63 56 54 52 49 52 58 56 60 62 61 60 60 62 53 49 48 49 50 52 53 54 54 54 55 56
72 72 71 71 71 71 71 70 70 71 69 69 69 67 66 64 64 63 58 56 56 52 49 57 57 61 65 65 62 61 62 54 49 47 47 47 48 50 51 51 51 52 53
71 70 70 70 70 71 71 70 70 70 68 68 68 65 63 62 59 56 55 54 51 50 49 54 57 65 63 61 63 59 62 58 55 46 45 45 46 46 46 47 47 48 49
70 70 70 70 71 72 72 71 68 68 65 65 60 58 56 56 55 54 52 51 51 51 50 48 53 49 59 51 50 54 53 56 57 52 45 45 45 44 44 44 44 44 45
69 70 70 69 70 70 70 70 67 62 60 61 61 58 56 55 53 53 52 51 52 52 50 49 50 50 47 44 43 47 47 51 57 50 44 43 43 44 44 44 43 43 43
68 69 69 70 69 70 71 70 66 63 65 65 62 56 56 55 53 53 52 51 50 49 49 45 42 38 39 40 41 41 41 45 49 53 50 45 45 45 44 43 42 43 43
68 69 70 70 70 70 69 68 64 61 58 57 56 54 55 53 47 48 51 50 48 43 39 39 36 35 36 35 36 39 38 42 43 47 48 50 50 50 50 44 44 44 43
70 70 70 69 67 62 49 46 50 56 53 51 51 43 42 41 38 37 37 35 38 38 35 35 34 34 33 33 34 35 36 36 35 49 45 43 49 47 47 49 44 42 42
65 63 61 58 48 43 39 43 41 46 43 40 39 39 37 37 37 36 34 34 34 34 32 36 34 33 33 34 36 36 36 36 36 42 43 41 47 44 47 48 43 42 41
50 47 44 42 39 38 37 38 38 38 36 35 35 35 34 33 34 34 34 32 32 32 33 34 34 34 35 38 38 37 36 36 39 42 43 35 44 43 46 47 44 42 41
40 38 38 38 36 35 36 36 37 34 32 31 33 33 32 31 32 34 32 31 31 32 33 33 33 32 32 32 32 35 34 34 34 38 42 38 39 40 43 44 47 43 41
36 36 34 35 35 35 35 36 36 34 31 31 31 31 31 31 31 31 31 31 30 32 33 33 33 32 31 35 31 33 33 29 30 30 38 33 37 38 34 43 44 46 46

GFSMA_sfc_temp_099.txt.gz
Temp
70 71 77 78 78 79 77 76 78 79 79 78 79 78 78 80 79 78 74 66 67 69 69 69 68 68 67 66 66 66 66 65 65 65 64 63 64 63 63 62 62 62 62
72 72 75 79 80 81 80 79 80 79 78 78 77 78 78 79 79 78 76 71 65 67 68 69 69 68 67 67 66 66 66 65 65 65 64 63 63 62 62 62 61 61 61
74 73 74 79 80 81 80 80 79 79 78 78 76 77 78 78 79 78 76 74 70 64 66 68 68 68 67 67 66 66 66 65 65 65 64 63 63 62 61 61 61 61 60
73 72 70 71 78 77 80 80 78 77 76 77 76 77 77 78 77 77 78 77 74 74 65 65 66 67 67 67 66 66 66 65 65 64 64 63 63 62 61 61 60 60 60
66 67 67 70 76 78 78 78 77 76 75 76 76 76 76 76 76 78 77 76 75 74 73 64 64 64 65 66 66 67 67 66 65 65 64 63 62 62 61 60 60 60 60
65 67 68 69 78 77 76 76 73 76 76 76 78 75 75 76 76 75 75 76 75 74 74 71 67 67 63 65 66 67 67 66 66 65 64 63 62 62 61 60 60 60 60
66 67 71 72 74 75 71 69 74 73 74 75 74 72 72 73 72 74 74 74 73 72 73 73 71 71 67 64 65 66 67 67 66 66 65 63 62 62 61 61 60 60 60
64 64 67 70 71 71 69 71 72 71 73 73 69 69 63 66 69 69 71 71 70 72 71 71 72 71 72 69 66 65 66 67 67 66 65 63 63 62 61 61 60 60 60
63 65 67 69 70 71 70 70 71 71 68 69 68 69 63 62 67 69 66 69 69 69 72 72 71 72 72 73 67 64 61 63 66 66 65 64 63 62 62 61 61 60 60
64 66 68 69 69 73 69 69 71 70 71 66 67 70 70 68 64 61 66 66 67 69 69 71 72 71 72 73 68 64 58 58 60 65 65 65 64 63 62 62 61 61 61
64 67 70 71 71 71 72 71 69 68 69 69 67 67 65 66 65 62 60 61 68 70 71 71 69 72 71 71 70 64 56 56 57 60 63 65 65 64 63 63 62 62 61
61 63 67 69 70 71 69 68 68 68 69 70 70 69 67 64 63 60 59 58 55 58 63 63 64 69 71 67 65 61 56 53 55 58 60 61 62 63 64 63 63 62 62
61 61 62 63 66 69 70 69 66 67 68 67 67 67 68 68 68 62 56 54 55 57 54 57 61 62 67 67 67 59 56 52 52 54 56 58 59 60 61 62 62 63 64
68 64 64 65 66 67 66 68 69 68 68 66 67 68 69 69 67 65 62 55 52 57 58 56 61 59 59 64 65 55 60 51 51 52 53 55 56 56 57 58 59 60 61
70 68 68 68 69 67 68 66 69 69 68 68 67 67 67 68 68 68 67 61 56 51 53 59 59 60 59 56 54 57 58 57 50 50 50 51 53 54 55 55 56 56 57
71 71 69 69 70 70 70 70 70 70 68 67 67 67 68 69 69 68 65 62 58 54 51 57 55 57 55 55 53 53 55 54 50 48 48 49 50 52 52 52 53 53 54
72 72 71 71 71 71 71 71 70 70 69 69 70 69 69 70 67 65 60 58 57 55 51 56 57 56 53 51 54 54 55 58 58 48 47 48 48 48 48 48 49 49 50
72 72 72 72 72 72 72 71 70 71 70 69 69 69 68 65 59 59 61 57 55 55 51 50 54 53 53 53 55 54 56 60 60 51 47 46 46 46 45 45 45 45 45
71 72 72 71 71 71 72 72 72 71 71 70 70 68 65 59 58 59 58 54 54 53 52 49 50 52 52 46 49 46 48 48 52 48 45 44 44 44 44 44 44 44 44
71 71 72 72 72 72 73 73 73 72 70 70 66 63 62 60 57 55 55 53 52 51 50 48 48 42 39 39 40 39 39 42 42 47 45 43 43 43 44 44 43 43 43
71 72 71 71 71 72 72 71 70 66 64 62 61 53 42 41 39 39 45 48 48 48 46 43 36 36 36 35 36 38 36 36 40 42 41 42 44 43 43 44 44 44 43
71 70 70 70 68 55 39 41 48 53 47 45 43 39 39 38 36 36 35 35 34 37 37 36 34 34 33 34 34 34 33 33 33 40 38 37 41 40 42 45 45 43 43
66 53 48 45 41 41 39 39 39 40 38 37 36 36 35 36 36 37 34 34 33 34 31 34 32 32 32 33 34 34 34 34 35 37 35 33 39 37 42 47 44 43 42
43 41 39 38 37 37 36 36 36 35 34 33 33 34 34 33 34 35 35 33 32 32 33 33 33 34 34 35 35 35 34 34 35 35 36 31 38 37 42 46 45 44 43
37 36 37 36 35 35 35 35 35 33 32 31 33 33 33 32 32 34 34 33 33 32 33 33 33 32 32 32 33 33 32 31 31 33 36 33 35 36 39 41 44 44 42
35 35 34 35 35 34 35 36 36 34 32 31 32 32 31 31 31 32 32 32 32 32 34 34 35 35 33 35 31 32 31 28 28 28 35 30 32 32 31 40 41 42 43

GFSMA_sfc_temp_102.txt.gz
Temp
68 68 68 69 69 69 68 67 67 69 69 68 69 70 70 72 69 67 64 65 66 69 69 69 68 68 67 66 66 66 65 65 65 65 64 64 63 63 62 62 62 62 62
68 69 69 70 70 70 70 69 69 71 68 68 68 69 70 69 69 67 65 62 65 67 68 69 69 68 68 67 66 66 66 66 65 65 64 64 63 63 62 62 62 62 62
68 69 70 68 71 71 69 70 70 68 67 69 67 67 68 69 71 68 66 64 62 64 66 67 68 68 68 67 66 66 66 65 65 65 64 64 63 62 62 61 61 61 61
69 69 70 70 73 71 71 71 70 66 65 65 64 65 66 67 68 67 67 66 64 66 63 65 66 67 67 67 67 67 66 66 65 65 64 64 63 62 62 61 61 61 61
64 68 70 66 70 72 71 69 66 65 63 64 65 64 64 65 66 70 68 67 65 65 64 63 63 64 66 67 67 67 67 67 66 65 65 64 63 62 62 61 61 61 60
64 64 66 67 66 67 68 69 67 66 64 64 72 67 62 63 64 63 65 69 67 64 64 64 62 62 62 65 66 67 68 67 67 66 66 64 63 63 62 61 61 61 61
64 63 66 65 66 67 64 67 65 64 63 65 61 60 60 62 62 62 63 63 64 65 63 62 62 62 62 63 65 67 68 68 67 67 66 65 64 63 62 61 61 61 61
64 63 65 64 66 65 65 65 64 62 63 64 60 57 53 57 59 61 60 62 62 63 64 64 63 63 64 62 62 65 66 68 68 67 66 65 64 63 62 62 61 61 61
64 63 64 64 64 65 63 63 63 63 61 61 62 59 54 52 54 57 58 58 60 60 61 63 64 64 64 62 62 62 61 62 66 67 66 65 64 63 63 62 62 62 61
62 62 62 63 63 64 63 63 65 63 62 58 59 62 60 58 53 50 56 57 58 60 60 61 64 65 66 64 62 60 57 58 61 65 66 66 65 64 63 62 62 62 61
61 61 61 63 64 64 63 62 62 62 62 61 60 58 58 57 57 53 51 53 58 62 63 63 64 62 64 64 66 62 57 55 57 61 64 65 65 64 64 63 63 62 62
59 60 62 61 62 62 62 62 63 62 61 61 61 60 57 55 54 53 51 52 52 55 63 62 60 64 65 63 65 62 56 55 55 58 61 62 64 64 64 64 64 63 63
58 59 61 60 60 62 63 62 62 61 61 60 61 60 59 59 59 57 54 52 51 52 52 54 57 60 62 62 63 59 58 52 54 56 58 60 61 62 63 64 64 63 63
60 62 61 62 63 64 63 63 63 62 61 60 60 60 60 59 59 58 56 52 51 52 52 52 56 60 61 62 61 56 61 53 51 53 55 56 58 59 59 60 61 62 62
62 61 62 62 61 62 62 61 62 61 61 60 59 60 61 61 59 59 59 58 55 51 51 55 56 61 60 60 59 58 58 56 50 50 50 52 55 56 57 57 58 58 59
64 62 62 62 62 63 63 62 62 62 61 60 60 60 60 61 61 60 61 60 58 55 52 58 58 60 58 58 58 56 57 54 50 49 49 49 51 53 54 54 55 55 56
65 64 63 63 64 64 64 62 62 62 62 62 62 61 61 62 60 61 60 60 58 56 53 57 59 58 56 54 56 55 54 54 54 48 47 48 48 49 50 50 51 51 52
65 65 65 65 65 65 64 63 62 64 62 61 61 61 61 62 60 60 60 58 57 57 55 53 56 55 53 53 53 52 52 55 54 52 48 47 47 47 47 45 45 45 46
65 66 66 65 65 65 65 64 64 63 63 63 62 61 61 59 58 56 56 56 57 56 54 52 52 54 50 45 46 46 45 46 49 45 43 44 44 44 44 43 43 43 43
65 65 65 65 65 65 66 66 66 64 64 63 60 48 43 41 41 42 48 47 49 50 51 50 49 47 40 40 40 39 40 41 42 47 45 42 42 42 42 42 41 42 42
66 66 66 66 66 66 59 52 59 60 52 46 42 41 39 38 37 37 38 36 39 41 42 40 38 36 35 35 35 37 37 35 37 40 40 40 40 41 41 41 41 41 41
66 65 63 54 48 45 39 41 47 44 43 41 38 37 37 38 36 36 35 35 34 35 34 34 33 33 32 32 33 32 32 32 32 37 36 33 38 36 38 39 41 40 40
50 45 42 41 38 38 37 38 39 38 36 36 35 35 35 36 36 36 35 35 34 34 31 33 31 31 31 32 33 32 32 32 32 35 33 32 35 34 38 42 41 41 40
39 38 37 37 36 35 36 36 35 35 33 33 33 33 32 32 33 35 35 33 31 32 32 33 31 31 32 33 32 32 31 32 32 33 35 29 32 33 35 38 41 42 42
36 35 35 35 34 34 35 35 35 33 31 30 31 32 32 31 33 35 33 31 31 32 34 34 34 33 33 33 33 30 29 27 26 30 32 29 31 31 33 34 37 41 42
34 34 33 33 34 33 35 35 35 33 31 31 31 31 32 31 33 33 31 29 27 27 31 31 33 34 35 35 32 30 28 25 25 26 28 25 26 27 24 30 31 34 35

GFSMA_sfc_temp_108.txt.gz
Temp
65 65 65 64 62 60 59 58 60 60 61 62 63 64 62 61 61 62 61 65 66 69 70 70 69 68 67 67 67 66 66 66 65 65 65 64 64 64 63 63 63 63 63
65 65 64 61 60 61 60 59 58 58 60 62 61 62 61 61 61 60 61 62 64 66 68 69 69 68 68 67 66 66 66 66 65 65 64 64 63 63 62 62 62 62 62
64 64 62 61 61 60 57 57 58 59 61 62 61 61 61 60 60 60 59 59 61 63 65 67 68 68 68 67 66 66 66 66 65 65 64 64 63 63 62 62 62 62 62
65 64 62 62 62 61 61 60 58 59 60 60 58 59 60 60 60 60 60 59 58 62 63 65 66 67 67 67 67 66 66 66 65 65 65 64 63 63 62 62 62 62 62
66 64 63 63 62 62 62 61 59 61 60 57 60 56 58 58 59 62 60 59 57 58 58 63 63 64 66 67 67 67 67 67 66 66 65 65 64 63 63 62 62 62 62
66 64 62 63 62 63 61 61 62 60 61 58 65 60 58 59 60 59 59 61 58 58 57 58 60 61 63 65 67 68 68 68 68 67 66 66 65 64 63 63 62 62 62
65 64 64 64 63 65 61 62 62 61 56 58 56 55 55 57 57 59 59 59 57 58 56 57 57 57 60 63 65 67 68 69 69 68 67 66 65 65 64 63 63 62 62
65 65 65 65 64 63 63 62 62 58 58 58 56 54 51 54 55 55 56 58 56 58 58 58 57 57 58 59 61 65 67 68 69 69 68 67 66 65 64 64 63 63 62
65 65 66 66 66 64 62 63 63 63 61 56 60 55 49 49 51 55 54 54 55 53 57 58 58 59 58 58 60 61 60 62 66 68 68 67 66 65 65 64 64 63 63
64 65 65 66 66 65 64 63 64 61 62 60 55 58 56 56 51 50 53 54 52 54 55 56 58 59 59 59 59 58 56 57 60 64 66 67 67 66 65 65 64 64 63
63 63 63 63 64 63 63 63 60 60 58 58 57 54 55 54 52 51 48 52 51 53 54 56 57 58 59 59 59 58 55 54 55 60 63 65 66 66 66 65 65 64 64
61 61 62 62 63 62 61 59 58 59 57 58 58 58 56 55 53 51 47 49 49 51 52 54 54 57 58 58 60 58 55 53 54 57 59 61 63 65 66 65 65 65 64
60 58 60 59 60 61 60 60 59 58 58 57 57 56 57 56 56 53 52 49 48 49 50 52 56 59 60 58 59 57 57 52 53 54 56 58 59 61 63 64 64 64 64
60 59 60 60 60 60 60 59 58 57 57 57 57 56 57 55 57 56 54 52 48 49 49 51 52 56 57 58 60 55 58 53 52 52 53 55 56 57 58 59 60 61 62
60 59 59 59 59 59 59 58 58 57 57 57 58 58 58 57 57 57 57 56 55 51 51 52 51 55 58 58 58 59 60 55 52 51 51 51 53 55 55 56 57 58 59
59 58 59 59 58 58 58 58 57 58 57 58 59 58 57 58 58 57 58 57 56 56 52 59 56 54 55 57 56 56 56 53 51 49 49 49 50 51 52 53 54 54 55
58 58 58 57 58 58 58 58 58 59 58 59 59 59 59 59 58 58 57 57 56 55 53 57 59 60 52 54 54 54 54 55 54 48 45 46 46 47 47 48 49 50 51
59 59 59 57 58 59 58 59 59 60 58 58 58 57 57 58 57 58 55 54 55 56 55 54 57 55 52 50 47 47 47 50 49 47 45 44 44 44 44 44 44 45 46
58 59 59 59 59 59 59 59 59 59 57 58 58 56 54 51 52 47 48 47 47 49 48 47 47 44 43 41 40 43 43 44 45 46 44 44 43 43 43 42 42 43 43
58 58 59 60 60 59 60 59 58 56 56 50 45 42 41 40 40 42 41 40 42 43 42 41 40 38 37 39 37 34 35 36 37 41 41 40 40 42 43 42 42 42 42
59 59 58 59 59 60 58 58 58 56 45 40 40 39 38 38 38 37 37 36 38 37 37 35 33 33 32 31 31 33 32 32 33 36 33 35 36 37 38 40 40 41 41
57 54 51 47 43 43 39 42 45 43 41 38 36 35 36 36 35 34 34 34 33 33 32 32 30 30 29 29 30 29 29 27 27 33 31 31 32 32 33 35 37 38 39
45 42 40 39 37 38 38 39 38 38 36 35 34 34 34 34 34 34 33 33 33 33 31 31 28 28 28 28 29 27 26 25 23 27 25 24 27 25 29 34 35 38 36
39 37 36 36 35 35 36 36 35 34 33 32 32 32 32 32 32 32 31 30 31 32 32 31 30 29 28 28 26 25 22 22 24 25 24 17 24 23 26 28 33 34 34
36 35 35 34 33 33 35 35 34 32 31 31 31 30 30 29 31 33 30 28 28 28 33 33 32 31 31 30 28 22 20 18 17 21 23 19 21 21 23 23 26 31 32
34 34 33 34 34 33 34 34 33 32 30 30 30 30 31 30 31 30 28 26 23 24 25 24 24 25 26 25 26 22 19 15 15 13 20 16 19 18 14 22 23 25 25

GFSMA_sfc_temp_111.txt.gz
Temp
64 65 66 66 62 59 59 58 58 61 61 61 61 62 60 58 59 58 58 65 66 69 70 70 69 68 68 68 67 67 66 66 66 66 65 65 64 64 64 63 63 63 63
64 65 64 65 61 60 58 60 61 60 60 60 59 60 59 58 58 57 58 61 64 66 68 69 69 68 68 67 66 66 66 66 66 65 65 64 64 63 63 62 62 62 62
65 64 64 62 60 58 56 57 57 57 59 60 59 59 59 58 58 58 57 57 60 63 65 67 68 68 68 67 66 66 66 66 65 65 64 64 64 63 62 62 62 62 62
66 64 62 61 59 57 57 58 57 57 56 60 57 58 57 57 57 57 57 57 57 59 62 65 66 67 67 67 67 66 66 66 65 65 65 64 64 63 63 62 62 62 62
64 64 62 60 59 58 58 59 54 59 57 58 59 56 54 54 56 60 57 57 57 57 57 62 63 64 65 67 67 67 67 66 66 66 65 65 64 64 63 62 62 62 62
64 63 61 59 60 59 58 57 58 56 56 59 62 56 53 54 55 57 59 59 57 57 56 57 58 59 62 65 67 68 68 68 68 67 66 66 65 64 64 63 63 62 62
63 61 62 60 61 60 58 59 58 58 53 57 55 54 53 54 54 55 55 55 55 56 56 55 55 55 57 63 65 67 68 69 69 68 68 67 66 65 64 64 63 63 62
63 62 62 61 61 60 57 59 61 54 55 57 55 53 48 52 54 55 55 57 55 55 56 55 55 55 55 55 59 64 67 68 69 69 68 67 66 65 65 64 64 64 63
64 64 62 62 62 62 60 60 61 61 57 54 59 54 50 49 51 52 54 55 55 53 55 56 56 57 56 56 58 60 60 62 66 68 68 67 67 66 65 65 65 64 64
64 64 63 63 63 62 62 62 62 62 58 57 54 57 57 55 50 50 53 52 55 55 54 53 56 57 58 57 58 57 56 56 60 64 66 66 67 67 66 66 65 65 64
64 64 64 64 63 63 62 62 61 58 60 60 58 54 54 53 52 52 48 50 52 54 56 56 56 56 57 58 58 57 55 54 55 59 62 64 65 66 66 66 66 65 65
63 63 64 63 63 63 62 62 60 59 57 57 57 57 55 54 52 51 50 49 50 53 56 56 54 55 56 57 58 57 55 53 53 56 59 61 63 64 65 66 66 66 66
61 62 62 62 62 62 61 60 59 58 58 57 56 56 56 57 56 54 53 51 50 52 52 52 56 57 58 56 57 56 56 52 52 54 56 57 59 60 61 63 64 65 66
61 60 61 62 62 61 60 60 59 58 57 57 56 56 56 56 55 55 54 52 48 49 51 52 54 54 56 56 57 54 57 53 52 52 53 54 55 56 56 57 59 60 61
61 60 60 60 60 60 60 59 58 57 57 57 57 56 56 56 55 56 55 55 53 50 53 55 51 54 55 55 55 57 58 55 51 50 49 50 52 53 53 54 55 56 57
60 59 59 60 60 59 59 59 58 57 57 56 56 56 56 57 57 56 56 56 55 54 52 57 55 53 54 55 54 53 54 52 48 45 45 46 47 48 48 48 49 50 51
59 59 59 59 58 58 59 58 58 57 56 56 56 56 57 58 57 57 56 56 55 55 52 57 55 55 51 50 48 49 49 48 48 44 44 44 44 44 44 44 44 45 46
58 58 58 58 58 58 57 57 57 57 56 55 56 56 56 57 56 56 55 55 54 54 54 53 54 46 42 44 44 42 44 45 44 44 43 42 42 42 43 42 43 43 43
58 58 58 57 57 57 57 57 57 58 57 57 56 55 51 50 50 48 48 47 47 48 47 47 44 42 40 38 39 39 39 39 41 43 41 41 40 41 41 41 41 41 41
57 58 58 58 58 58 58 58 58 56 53 47 44 42 41 41 42 43 41 41 43 42 41 40 38 35 34 35 35 32 33 34 34 39 38 38 39 39 39 38 38 39 39
56 57 57 57 57 57 56 55 55 52 44 40 39 38 38 38 37 37 37 36 37 37 36 34 33 32 30 30 28 30 29 30 32 31 30 31 32 32 32 32 35 36 38
55 55 52 50 47 45 40 44 47 44 41 38 35 35 36 36 35 35 35 34 33 33 31 30 29 28 27 28 29 27 26 24 23 29 25 25 28 26 27 30 33 34 36
47 43 42 41 39 39 39 40 39 39 37 35 35 34 34 34 34 33 33 33 32 33 31 30 26 25 23 23 25 23 21 21 21 25 22 21 24 23 26 30 31 33 34
40 38 37 37 36 36 37 37 35 34 33 33 33 33 32 32 32 31 30 29 30 29 29 29 26 26 25 24 23 23 21 20 22 23 21 13 21 21 23 25 30 32 31
36 35 35 34 34 34 35 35 34 32 30 29 30 31 31 31 32 32 28 27 26 27 30 30 29 28 28 27 25 19 16 14 13 18 19 15 18 18 20 21 24 28 29
34 34 33 33 34 32 35 35 34 31 29 28 30 30 31 29 30 29 27 25 22 22 23 23 22 23 23 23 23 21 17 12 12 9 17 14 16 16 12 21 21 22 21

GFSMA_sfc_temp_114.txt.gz
Temp
63 65 65 65 66 65 64 59 58 59 59 60 61 61 60 60 60 60 61 65 66 69 70 70 70 69 68 68 68 67 67 67 67 66 66 65 65 65 64 64 64 63 63
64 63 64 64 63 64 62 60 59 58 60 60 59 60 59 58 58 58 59 62 64 67 68 70 70 69 69 68 67 67 66 66 66 66 65 64 64 64 63 63 63 62 63
64 64 64 64 62 61 59 59 57 56 58 59 57 57 58 57 58 58 59 59 62 63 65 68 68 68 68 68 67 66 66 66 66 66 65 64 64 64 63 62 62 62 62
65 64 64 62 61 59 60 60 58 55 55 57 55 55 56 57 57 57 58 58 59 61 63 65 66 67 68 68 67 67 66 66 66 66 65 64 64 64 63 62 62 62 62
64 65 64 62 59 58 59 59 57 59 56 55 57 54 54 56 57 59 57 57 58 59 59 63 64 64 66 67 67 67 67 67 66 66 66 65 65 64 63 63 63 62 62
63 64 62 59 60 58 57 59 58 55 55 56 60 55 53 55 55 55 57 59 58 58 58 59 60 61 62 65 67 68 68 68 68 67 67 66 66 65 64 64 63 63 63
63 62 60 59 59 59 58 58 59 57 52 55 53 52 52 54 54 55 56 56 57 58 57 57 57 58 59 63 65 67 68 69 70 69 68 68 66 65 65 64 64 64 63
61 61 60 60 59 58 57 57 59 55 53 57 53 52 50 53 53 54 54 56 55 57 57 58 57 57 57 58 59 64 66 68 69 69 69 68 67 66 65 65 65 64 64
61 61 61 60 59 59 57 58 59 60 55 53 60 54 49 49 51 52 53 55 56 55 58 57 57 57 57 57 58 59 59 61 65 67 68 67 67 67 66 65 65 65 65
61 60 61 61 60 59 58 58 60 60 57 55 54 56 56 54 50 49 53 53 55 55 56 56 58 58 58 58 57 57 55 56 59 63 65 66 66 66 67 66 66 65 65
62 61 60 60 60 59 58 59 58 57 57 59 55 54 54 53 53 52 50 52 52 55 57 57 57 57 58 59 58 57 54 53 54 59 62 64 65 65 66 66 66 66 66
62 62 61 60 60 59 58 58 59 57 56 59 56 55 55 54 53 52 50 50 51 54 54 55 56 57 57 57 58 56 54 52 53 55 58 60 62 63 64 65 65 66 66
61 61 62 60 60 60 60 60 59 57 56 57 55 55 56 56 56 54 53 51 51 53 54 55 55 56 58 56 57 55 55 52 52 53 55 57 58 59 60 61 62 62 62
62 62 63 62 62 62 61 60 59 59 57 56 56 56 55 55 55 55 54 52 50 50 52 55 56 55 56 57 57 53 56 50 50 50 51 52 53 53 54 54 55 55 56
61 61 63 62 62 62 60 60 59 57 57 57 56 56 56 56 55 55 54 54 52 48 51 55 54 56 56 55 54 55 55 46 46 46 46 47 48 48 48 48 49 50 50
61 61 61 61 61 61 61 60 58 58 58 57 57 57 56 56 56 55 55 54 54 53 50 56 55 56 52 53 49 49 48 46 44 43 43 44 44 45 45 45 45 46 46
60 60 60 60 60 60 60 59 59 59 58 57 57 57 56 57 56 56 55 55 55 55 52 55 55 49 45 45 44 46 45 44 43 42 41 42 42 42 42 42 42 42 43
59 59 59 59 59 59 59 59 58 58 57 56 56 56 55 56 55 56 55 55 55 55 54 53 48 43 39 42 40 40 41 42 43 41 40 40 41 41 40 40 40 39 41
57 58 58 58 58 58 59 59 58 57 57 57 56 55 55 54 54 51 50 50 48 48 46 47 40 39 37 36 37 37 36 36 41 40 39 38 39 40 38 37 37 37 38
57 57 58 57 57 57 57 57 57 56 52 48 45 44 44 46 46 45 43 43 43 41 41 40 36 34 34 34 33 30 31 33 33 35 35 35 36 36 35 35 35 36 36
57 57 57 57 57 57 56 56 55 48 42 39 39 38 38 39 39 39 39 39 39 37 36 34 32 31 29 29 27 28 28 29 30 29 29 30 32 31 31 31 32 34 35
56 56 53 52 49 47 43 45 47 43 41 38 35 35 36 36 35 35 35 34 35 34 31 31 29 25 24 25 26 24 24 23 22 29 25 25 28 26 28 29 31 32 34
48 45 44 45 42 42 41 41 40 40 38 36 34 34 34 34 34 33 33 32 31 31 30 28 24 24 21 22 24 22 21 21 22 25 22 21 25 23 26 29 29 31 32
41 39 38 38 37 37 38 38 37 36 35 34 34 33 32 31 32 31 29 27 26 27 27 28 25 24 24 23 23 22 20 20 23 24 21 15 22 21 24 26 28 30 30
37 35 35 35 34 34 35 35 34 32 31 31 32 32 32 30 32 33 28 25 25 26 29 29 28 28 27 26 24 20 17 15 14 19 20 16 19 18 21 24 26 27 27
34 34 33 34 34 33 35 34 34 32 30 29 29 29 30 29 30 29 26 24 21 22 23 22 23 23 24 23 23 21 18 13 13 11 19 14 17 16 12 21 22 23 23

GFSMA_sfc_temp_117.txt.gz
Temp
68 65 66 67 69 70 72 70 70 69 70 70 70 71 70 71 70 72 74 66 67 70 70 70 70 70 70 69 68 68 68 68 67 67 66 66 66 65 65 64 64 64 64
67 66 65 65 66 67 72 69 69 66 70 71 70 70 70 71 72 71 73 73 65 67 69 70 70 70 70 69 68 67 67 67 67 67 66 65 65 64 64 63 63 63 63
65 66 64 64 65 65 65 67 69 68 70 71 70 70 70 69 71 71 73 73 70 64 66 68 69 69 69 69 67 67 67 67 67 66 65 65 65 64 63 63 63 63 63
66 65 64 64 64 63 64 64 69 68 69 70 69 70 70 70 70 71 72 73 73 74 67 66 67 68 68 68 68 67 67 66 66 66 65 65 65 64 64 63 63 63 63
67 65 64 63 62 61 63 67 69 69 67 69 69 69 70 70 69 71 70 70 71 72 73 65 64 65 66 67 68 68 68 67 66 66 66 65 65 65 64 64 63 63 63
65 65 64 62 61 60 63 66 67 69 69 68 69 67 68 69 69 69 70 71 71 70 71 71 70 69 63 66 67 68 69 68 68 67 67 67 66 65 65 64 64 63 63
64 63 63 61 61 59 64 67 67 65 66 68 65 64 65 66 66 68 70 70 69 69 69 69 71 71 69 64 66 67 69 70 70 69 68 68 67 66 65 65 65 64 64
63 63 62 61 60 60 61 63 66 66 66 66 66 65 58 61 64 65 67 68 67 70 68 68 69 69 70 71 68 65 67 68 69 69 69 68 67 67 66 65 65 65 65
63 61 61 61 60 60 60 64 66 66 63 65 67 67 59 60 60 64 64 67 67 67 68 65 66 68 69 70 66 64 59 61 65 67 68 67 67 67 66 66 65 65 65
61 61 61 59 59 61 60 65 65 65 64 62 65 67 70 66 63 56 62 64 66 65 64 63 67 67 68 68 65 60 56 56 59 63 65 66 66 66 66 66 66 66 65
61 61 59 58 57 60 63 63 65 66 68 67 65 65 65 65 65 64 60 61 64 66 66 66 69 68 64 61 64 64 55 53 54 58 61 63 65 65 65 65 66 66 66
61 61 59 58 57 59 60 63 63 65 65 67 69 67 66 65 64 65 63 63 64 65 67 65 66 66 66 67 65 57 55 52 52 55 57 59 61 62 62 63 64 64 64
62 60 61 58 58 59 60 61 63 63 64 65 65 66 67 69 67 66 64 58 58 63 63 63 64 65 64 63 66 56 54 50 50 52 54 55 56 56 57 58 59 59 59
62 63 62 62 60 60 60 61 63 63 64 63 64 64 64 62 63 63 61 58 56 60 61 62 60 62 61 61 54 54 49 47 47 48 49 50 50 50 50 51 52 52 52
64 62 62 62 62 60 61 62 63 62 63 62 61 61 61 61 61 60 60 58 56 52 55 61 58 58 57 52 52 49 47 45 45 44 45 46 47 47 47 47 47 47 48
62 61 62 61 61 61 61 60 61 62 61 60 60 60 59 58 58 57 56 57 55 54 51 61 56 51 51 49 47 47 46 44 43 42 42 43 43 44 43 43 43 43 44
65 64 63 61 60 60 60 60 60 60 59 58 58 57 57 57 56 56 56 56 55 54 52 56 54 47 44 43 44 44 44 42 41 40 41 42 42 40 40 40 40 40 41
62 62 61 61 61 60 60 59 58 58 58 57 57 57 56 57 57 57 56 56 56 56 55 53 47 40 40 40 40 38 39 42 40 39 38 40 40 39 38 38 38 38 38
59 59 59 59 58 60 59 59 59 58 58 57 58 57 58 57 56 56 56 55 54 51 51 51 39 39 35 37 36 37 35 37 39 38 37 36 38 37 36 36 36 36 36
57 58 58 58 58 59 59 59 58 58 57 57 56 56 56 56 55 53 50 48 46 45 44 41 37 34 34 33 32 31 31 33 32 35 35 35 34 35 35 34 35 35 35
59 58 57 57 57 57 57 57 55 48 45 41 40 40 40 40 39 40 42 42 42 40 38 35 32 30 29 27 27 28 28 29 29 31 31 36 38 37 38 36 36 33 34
57 56 55 53 52 49 42 43 46 43 41 38 35 35 36 36 34 34 33 33 35 35 32 30 26 24 24 26 25 25 25 26 27 35 32 33 34 34 36 36 32 32 33
50 47 46 45 43 43 41 40 39 40 37 35 34 34 33 34 33 31 31 31 30 30 29 28 24 23 21 23 25 24 25 27 31 32 29 30 34 31 34 35 32 31 32
44 42 40 39 38 38 38 38 37 36 34 34 33 33 32 31 31 30 28 26 25 26 26 27 25 24 24 25 27 26 26 28 33 32 29 23 31 29 32 34 32 31 30
38 37 37 36 35 35 36 36 35 33 32 31 32 32 31 30 31 32 27 25 24 24 28 28 27 26 25 24 25 25 24 24 24 27 27 23 27 27 29 31 34 31 30
35 34 34 34 34 34 35 35 35 33 30 29 29 30 31 29 30 30 27 25 21 22 23 23 22 22 24 23 23 23 22 18 19 22 25 20 23 24 20 29 30 31 31

GFSMA_sfc_temp_120.txt.gz
Temp
76 77 72 76 71 72 75 74 75 79 78 74 77 78 78 79 79 81 78 66 67 70 71 71 71 71 70 69 69 68 68 68 68 67 67 66 66 65 65 65 64 64 64
73 69 68 73 68 71 74 72 77 79 78 77 76 77 78 79 79 79 80 74 66 68 69 71 71 71 70 69 68 68 68 68 68 67 67 66 66 65 64 64 64 64 64
73 71 67 68 67 66 67 68 74 77 77 77 76 77 78 77 78 77 78 76 73 65 66 68 70 70 70 69 68 68 67 67 67 67 66 65 65 65 64 64 63 63 63
70 69 67 66 68 65 64 67 73 75 76 74 74 77 78 77 77 77 79 79 78 78 67 66 68 69 69 69 68 68 67 67 67 67 66 65 65 65 64 64 63 63 63
70 67 67 65 66 64 63 64 69 74 73 75 75 76 77 77 76 78 77 77 78 78 78 66 65 66 67 68 68 68 68 67 67 67 66 66 65 65 65 64 64 64 63
67 67 66 65 65 63 62 64 66 75 76 77 75 73 75 76 77 76 75 78 77 77 78 75 73 71 64 67 68 68 69 69 68 68 67 67 66 65 65 65 64 64 64
67 65 64 64 63 62 62 64 67 73 74 74 71 68 71 74 74 73 74 77 76 76 76 77 77 78 72 64 66 68 69 70 69 69 68 67 67 66 65 65 65 65 64
68 66 65 63 62 61 61 64 67 72 74 75 69 69 60 64 70 71 73 76 74 77 76 75 76 76 78 76 71 65 67 69 70 70 69 68 67 66 66 65 65 65 65
71 67 65 62 62 61 60 61 66 67 70 72 74 71 64 62 67 71 71 74 73 74 76 75 75 75 74 77 72 68 61 62 66 68 68 67 67 66 66 66 66 66 65
69 66 64 63 61 62 61 61 65 69 73 70 74 77 76 75 66 62 69 71 73 72 73 74 73 69 74 76 69 63 56 56 59 63 65 66 66 66 66 66 66 66 66
65 67 63 60 61 61 62 62 63 70 73 72 72 72 73 73 73 71 64 67 71 73 74 73 71 71 75 75 75 68 56 54 54 58 60 62 63 64 64 64 65 65 65
61 62 60 59 59 59 60 61 63 68 71 73 73 72 72 70 71 72 71 68 67 71 73 72 72 74 76 75 69 59 53 52 52 55 56 58 59 60 61 61 62 62 63
60 59 60 58 58 58 59 61 63 69 70 72 71 73 74 74 76 74 73 70 68 69 69 71 75 75 74 72 67 56 49 49 50 52 53 54 54 55 55 56 56 56 56
62 62 60 60 57 57 58 60 63 68 70 71 71 72 74 74 76 75 73 68 64 65 64 66 69 65 63 64 52 49 48 46 46 47 49 50 50 50 50 50 50 50 50
64 64 63 60 59 57 57 60 63 65 67 69 69 71 73 74 73 73 70 68 64 56 59 61 58 60 52 51 50 49 47 44 44 44 45 46 46 46 45 45 46 46 47
64 62 61 61 61 60 59 59 61 64 65 65 70 69 70 68 66 65 65 66 65 62 57 62 55 50 49 47 47 46 44 43 42 42 43 42 42 42 42 42 42 42 42
63 61 62 61 60 60 61 60 58 61 65 66 68 68 66 64 61 61 61 60 60 60 54 54 51 46 44 42 42 43 42 39 38 40 41 40 40 39 39 39 39 39 40
69 68 65 62 60 59 60 60 60 62 66 66 65 64 63 61 60 59 59 60 57 57 55 54 47 40 39 39 38 37 40 40 37 36 38 39 39 38 37 37 37 37 37
64 63 63 62 61 61 59 59 60 60 60 61 62 62 61 58 56 56 56 56 56 55 55 53 40 38 36 37 35 35 35 36 38 36 37 36 36 36 36 36 37 36 36
63 60 61 61 60 59 60 60 59 58 58 58 58 58 57 56 57 56 56 56 54 50 46 40 35 34 33 32 31 31 30 33 33 35 36 37 37 37 37 38 38 35 35
61 61 61 60 57 58 58 58 58 57 55 49 44 43 42 43 42 45 49 46 45 41 38 35 32 30 28 27 26 28 29 31 29 31 34 37 38 41 44 42 40 35 34
59 59 59 55 51 47 41 43 46 44 41 39 36 35 35 36 35 34 34 34 37 37 33 30 28 26 25 25 26 25 26 28 28 33 33 37 41 42 42 41 36 34 33
53 48 47 46 43 42 39 40 40 40 38 37 35 34 33 33 32 31 30 30 30 30 30 29 25 24 24 26 27 26 28 31 30 31 31 33 39 37 38 37 36 34 33
47 43 40 40 39 38 37 37 36 35 34 34 33 32 31 30 30 29 27 25 25 26 27 27 25 25 26 29 29 29 29 31 35 36 32 25 33 31 34 36 36 35 34
41 40 39 38 37 36 36 36 36 33 32 31 31 31 30 29 31 32 27 25 25 25 29 29 28 27 27 27 29 29 28 30 29 34 32 28 32 32 35 36 39 35 34
37 37 35 36 36 35 36 36 36 33 31 29 29 29 30 29 30 29 27 25 22 22 23 24 24 25 26 27 28 31 30 26 28 29 30 26 29 30 26 35 35 36 36

GFSMA_sfc_temp_123.txt.gz
Temp
78 79 76 75 79 77 72 72 71 74 77 80 80 76 78 82 82 82 76 67 68 70 71 72 71 70 70 69 69 68 68 68 68 68 67 67 66 66 65 65 65 64 64
79 79 78 75 75 73 70 67 72 69 76 79 76 73 80 81 81 80 76 72 66 68 69 71 71 71 70 69 69 69 68 68 68 67 67 66 66 65 65 64 64 64 64
77 78 76 73 72 68 67 66 72 69 73 76 73 73 80 80 80 79 77 75 71 65 67 69 70 70 70 69 68 68 68 68 68 67 67 66 65 65 64 64 64 64 64
77 76 75 74 70 67 65 64 66 66 73 77 73 73 79 79 78 78 79 77 76 75 66 67 68 69 69 69 69 68 68 67 67 67 66 66 65 65 65 64 64 63 63
75 73 72 70 70 69 64 63 63 65 74 76 73 72 78 78 77 79 78 77 76 76 74 65 65 67 68 69 69 69 69 68 67 67 67 66 65 65 65 65 64 64 64
74 72 69 68 70 66 64 63 62 66 77 76 73 72 74 72 76 77 78 79 78 77 76 72 71 70 65 67 68 69 69 69 68 68 67 67 66 66 65 65 64 64 64
73 69 69 67 65 63 63 63 62 63 71 73 69 66 69 70 72 73 76 78 77 77 77 75 74 76 70 65 67 68 69 70 69 69 68 67 67 66 65 65 65 65 65
70 70 69 65 65 63 62 62 62 62 67 70 69 65 59 62 67 72 74 75 75 77 77 77 76 76 76 72 69 66 68 69 70 70 69 67 67 66 66 66 65 65 65
73 70 67 65 63 63 61 61 62 62 64 68 70 69 61 61 62 68 70 73 74 75 77 76 76 77 78 77 71 66 61 63 67 69 69 67 67 66 66 66 66 66 66
73 73 71 66 63 63 62 62 62 62 65 66 69 73 74 73 64 59 68 68 74 74 74 76 75 76 76 76 71 62 58 57 60 64 65 66 66 66 66 65 65 65 65
73 73 70 66 62 62 62 62 61 62 65 66 70 69 72 75 72 68 62 65 67 75 76 76 76 74 73 71 75 61 55 53 54 58 60 61 62 62 63 63 64 64 64
70 71 70 65 64 62 61 61 62 61 63 67 70 73 73 72 68 71 68 67 66 72 75 75 73 73 73 74 62 51 51 50 52 54 56 57 58 58 59 60 60 60 59
64 66 65 62 61 62 61 61 61 61 63 66 67 72 75 74 76 75 73 69 67 68 68 72 73 72 73 61 58 52 49 49 51 53 54 54 54 54 54 54 54 54 54
64 64 62 61 61 60 59 61 61 61 62 62 65 71 74 74 76 76 74 67 64 65 66 66 65 63 63 58 50 49 47 46 46 48 49 49 48 48 48 49 49 50 50
67 64 62 60 59 58 59 59 59 60 61 62 62 68 69 73 74 75 76 74 68 60 60 61 58 56 55 52 49 47 46 44 45 45 45 45 45 45 44 44 44 44 45
67 63 62 60 58 58 58 58 59 60 60 61 64 68 69 72 72 74 74 74 71 65 58 62 53 50 49 47 45 43 43 43 43 42 42 42 42 42 42 42 42 42 42
70 66 62 60 58 57 58 58 58 59 60 62 66 67 67 69 70 70 69 69 64 64 60 54 49 45 44 43 42 41 39 37 38 40 40 40 39 39 39 39 39 39 39
70 65 62 61 59 58 57 57 57 58 59 61 63 65 66 67 66 66 65 62 62 63 60 53 44 41 39 39 39 40 39 38 36 36 38 38 38 38 38 38 38 37 37
70 67 66 64 61 59 58 58 58 58 58 60 62 65 67 67 64 62 61 60 60 55 56 51 41 38 36 36 34 35 35 35 36 36 37 36 37 37 38 38 38 36 36
69 69 68 68 66 61 60 59 58 58 58 59 59 62 64 64 62 60 58 56 54 53 51 43 37 34 33 31 32 31 30 33 31 36 36 37 37 38 38 40 37 37 35
67 65 63 62 62 61 61 60 59 58 58 59 55 53 54 53 45 47 54 53 53 45 42 38 33 31 29 28 28 29 29 30 30 32 34 37 37 39 41 42 40 38 35
64 62 61 57 53 50 41 44 52 54 50 43 39 38 40 39 36 36 35 34 40 42 37 35 31 29 26 26 27 26 28 29 27 33 32 36 39 38 40 41 37 36 35
58 52 49 48 45 43 40 40 40 40 38 37 35 35 33 34 34 32 31 31 31 32 31 32 28 26 25 26 28 28 30 31 30 30 31 33 37 37 38 39 37 36 36
48 44 42 42 40 39 38 37 37 36 34 33 33 33 33 32 32 30 27 25 25 26 27 28 26 26 28 30 30 30 30 31 31 31 33 26 35 34 37 40 38 37 37
43 40 40 38 38 37 36 36 36 34 32 31 32 31 31 30 31 32 27 24 24 25 29 29 29 29 31 31 31 31 28 29 31 34 32 30 35 33 35 37 39 38 37
39 38 36 37 36 36 36 37 36 34 30 29 29 29 30 29 30 29 27 25 21 22 24 25 26 27 28 29 31 32 32 29 29 30 29 28 31 31 27 36 36 37 37

GFSMA_sfc_temp_126.txt.gz
Temp
73 73 72 70 69 69 68 69 67 68 69 70 72 70 73 72 72 69 67 66 67 70 71 71 71 70 70 69 68 68 68 68 68 68 67 66 66 65 65 64 64 64 64
73 73 72 70 68 68 68 68 66 67 66 65 69 70 71 74 73 69 67 64 66 68 70 71 71 71 70 69 68 68 68 68 68 67 66 66 65 65 64 64 64 64 64
74 73 72 70 68 68 67 66 65 65 64 64 69 69 71 73 70 69 68 66 64 65 67 69 70 70 70 69 68 68 68 68 68 67 66 66 65 64 64 64 64 63 63
74 72 72 71 69 67 65 65 63 63 63 64 66 66 69 72 69 70 68 67 66 68 64 66 67 69 69 69 69 69 68 68 67 67 66 66 65 65 64 64 64 64 64
74 73 72 70 68 66 64 63 63 63 62 62 64 68 67 68 67 73 69 68 67 66 66 64 65 66 67 68 69 69 69 68 67 67 66 66 65 65 64 64 64 64 64
72 71 70 69 68 65 64 63 62 62 63 62 68 65 66 69 67 66 70 71 68 67 67 65 62 63 65 67 68 69 69 69 68 68 67 66 66 65 65 64 64 64 64
72 71 68 67 68 65 64 64 63 61 61 63 62 60 62 68 68 65 69 69 69 69 67 65 64 64 63 65 66 68 70 70 69 68 68 67 67 66 65 65 65 65 65
72 70 67 66 67 64 64 63 63 61 61 61 61 61 54 59 63 66 65 66 66 68 67 67 66 66 64 62 61 66 68 70 71 69 69 67 66 66 65 65 65 65 65
69 69 68 65 65 64 62 63 62 62 59 60 62 63 55 53 59 62 62 62 63 63 66 68 67 68 67 64 63 62 61 63 67 69 68 67 66 66 66 66 66 66 66
68 68 68 66 64 64 62 63 63 62 62 59 61 68 64 63 57 54 61 61 66 65 63 63 64 66 67 67 64 62 58 58 60 65 66 66 66 65 64 64 64 64 64
68 68 67 66 64 64 63 62 62 62 62 61 62 63 64 64 63 59 56 58 63 64 64 63 63 64 66 65 61 56 56 53 55 58 60 61 61 62 62 62 62 62 61
67 68 68 66 64 63 62 62 62 62 61 61 63 64 64 63 62 60 57 59 57 63 63 63 65 63 63 53 55 52 51 51 53 55 57 58 58 59 60 60 59 58 58
66 66 66 65 63 62 62 62 61 61 61 60 62 64 67 66 68 65 62 59 59 59 59 63 63 62 57 51 50 50 50 49 51 52 54 54 54 54 54 55 55 54 53
65 64 64 63 63 62 62 61 61 61 61 61 61 63 65 68 67 66 65 62 57 58 60 57 57 53 52 48 48 48 47 47 48 48 49 49 49 48 48 48 48 48 49
65 64 62 61 61 61 61 60 60 60 60 60 61 61 63 68 66 69 65 68 62 55 56 55 52 53 50 48 47 45 45 45 45 45 45 45 45 45 45 45 45 46 46
64 63 61 60 59 59 59 59 60 60 59 59 61 61 62 62 64 63 63 66 65 62 54 54 48 47 46 45 44 43 43 43 43 42 42 42 42 42 42 42 42 43 43
65 63 61 59 59 58 58 58 58 59 59 59 60 60 61 61 60 62 62 61 62 62 52 47 46 44 42 40 39 39 39 38 39 40 39 39 39 39 39 39 39 40 41
65 63 62 60 58 58 57 57 57 59 59 59 59 59 59 61 61 61 60 59 59 59 54 46 43 40 39 40 38 37 37 37 36 37 38 38 38 39 39 38 38 38 38
65 64 62 59 58 57 57 57 58 59 59 59 59 60 59 60 61 60 58 57 56 56 54 46 40 38 36 37 35 35 34 33 35 35 36 37 38 38 39 39 38 37 37
64 65 63 61 60 58 57 57 58 58 58 59 59 59 60 60 60 59 58 57 55 53 49 42 37 34 33 34 34 32 30 31 30 36 34 36 37 38 39 39 39 37 36
63 64 63 63 62 59 58 57 57 57 57 57 56 56 55 55 52 56 58 54 54 48 45 40 34 31 30 30 30 30 30 28 29 31 33 35 36 37 37 40 38 37 36
61 61 60 57 53 51 41 46 53 57 56 56 54 46 45 42 40 39 38 38 45 45 40 38 33 32 28 27 29 29 29 27 25 32 32 33 36 35 37 36 37 37 36
56 51 49 48 44 42 40 41 40 42 40 40 41 40 36 36 36 34 33 33 33 34 34 35 34 30 27 27 28 28 28 29 27 29 30 30 33 32 36 37 37 37 37
48 45 43 42 39 38 38 38 37 36 34 34 34 34 34 32 33 33 31 29 27 28 30 30 29 28 28 30 31 32 31 28 29 30 31 26 32 31 34 34 38 38 38
42 40 39 38 37 36 36 37 36 35 33 32 32 32 33 33 34 35 30 27 26 27 31 31 31 31 32 33 32 29 27 27 27 28 29 27 29 28 29 30 33 38 37
39 38 36 37 36 35 36 37 36 34 30 29 30 30 32 31 32 32 29 27 23 24 25 26 27 28 29 30 31 31 31 27 27 24 26 23 26 26 23 31 30 31 31